IT9IJI-13 Weather Reports


Display with metric or nautical units.
time (UTC)temp
F
wind
direction
speed
MPH
gust
MPH
rain 1hr
in
rain 24hr
in
rain mn
in
humidity
%
barometer
mb
20260509221403 65 113 0.0 3.0 0.00 0.00 0.00 74 1016.0
20260509221303 65 113 0.0 3.0 0.00 0.00 0.00 74 1016.0
20260509221203 65 115 0.0 3.0 0.00 0.00 0.00 74 1016.0
20260509221103 65 117 1.0 3.0 0.00 0.00 0.00 74 1016.0
20260509221003 65 111 0.0 3.0 0.00 0.00 0.00 74 1016.1
20260509220903 65 112 0.0 3.0 0.00 0.00 0.00 74 1016.0
20260509220803 65 108 0.0 3.0 0.00 0.00 0.00 74 1016.0
20260509220703 65 314 1.0 4.0 0.00 0.00 0.00 74 1016.0
20260509220603 65 269 1.0 4.0 0.00 0.00 0.00 74 1016.1
20260509220503 65 151 1.0 4.0 0.00 0.00 0.00 74 1016.0
20260509220403 65 164 1.0 4.0 0.00 0.00 0.00 74 1016.1
20260509220303 65 257 0.0 4.0 0.00 0.00 0.00 74 1016.1
20260509220203 65 250 0.0 4.0 0.00 0.00 0.00 74 1016.1
20260509220103 65 259 0.0 4.0 0.00 0.00 0.00 74 1016.1
20260509220041 65 271 0.0 4.0 0.00 0.00 0.00 74 1016.2
20260509215903 65 281 0.0 4.0 0.00 0.00 0.00 74 1016.1
20260509215803 65 283 0.0 4.0 0.00 0.00 0.00 74 1016.2
20260509215703 65 183 0.0 3.0 0.00 0.00 0.00 74 1016.2
20260509215603 65 185 0.0 3.0 0.00 0.00 0.00 74 1016.2
20260509215503 65 289 0.0 3.0 0.00 0.00 0.00 74 1016.1
20260509215403 65 289 0.0 3.0 0.00 0.00 0.00 74 1016.2
20260509215306 65 282 0.0 3.0 0.00 0.00 0.00 74 1016.1
20260509215203 65 291 0.0 3.0 0.00 0.00 0.00 74 1016.1
20260509215103 65 267 0.0 3.0 0.00 0.00 0.00 74 1016.2
20260509215003 65 276 0.0 3.0 0.00 0.00 0.00 74 1016.2
20260509214903 65 278 0.0 3.0 0.00 0.00 0.00 74 1016.2
20260509214803 66 141 0.0 3.0 0.00 0.00 0.00 74 1016.1
20260509214703 66 124 0.0 4.0 0.00 0.00 0.00 74 1016.1
20260509214603 66 112 0.0 4.0 0.00 0.00 0.00 74 1016.1
20260509214503 66 109 0.0 4.0 0.00 0.00 0.00 74 1016.1
20260509214403 65 109 0.0 4.0 0.00 0.00 0.00 74 1016.1
20260509214303 66 109 0.0 4.0 0.00 0.00 0.00 74 1016.1
20260509214203 66 113 0.0 4.0 0.00 0.00 0.00 74 1016.1
20260509214103 66 103 0.0 4.0 0.00 0.00 0.00 74 1016.2
20260509214003 66 102 0.0 4.0 0.00 0.00 0.00 74 1016.1
20260509213903 66 102 0.0 4.0 0.00 0.00 0.00 74 1016.1
20260509213803 66 93 0.0 4.0 0.00 0.00 0.00 74 1016.1
20260509213703 66 88 0.0 3.0 0.00 0.00 0.00 74 1016.1
20260509213603 66 89 0.0 3.0 0.00 0.00 0.00 74 1016.1
20260509213503 66 99 0.0 3.0 0.00 0.00 0.00 74 1016.1
20260509213403 66 89 0.0 3.0 0.00 0.00 0.00 74 1016.2
20260509213303 66 89 0.0 3.0 0.00 0.00 0.00 74 1016.1
20260509213203 66 89 0.0 3.0 0.00 0.00 0.00 74 1016.1
20260509213103 66 116 0.0 3.0 0.00 0.00 0.00 74 1016.2
20260509213003 66 116 0.0 3.0 0.00 0.00 0.00 74 1016.2
20260509212903 66 115 0.0 3.0 0.00 0.00 0.00 74 1016.1
20260509212803 66 117 0.0 3.0 0.00 0.00 0.00 74 1016.2
20260509212703 66 201 0.0 3.0 0.00 0.00 0.00 74 1016.2
20260509212603 66 23 0.0 3.0 0.00 0.00 0.00 74 1016.2
20260509212503 66 274 0.0 3.0 0.00 0.00 0.00 74 1016.2
20260509212403 66 274 0.0 3.0 0.00 0.00 0.00 74 1016.2
20260509212305 66 274 0.0 3.0 0.00 0.00 0.00 74 1016.2
20260509212203 66 274 0.0 3.0 0.00 0.00 0.00 74 1016.2
20260509212103 66 271 0.0 3.0 0.00 0.00 0.00 74 1016.1
20260509212003 66 282 0.0 3.0 0.00 0.00 0.00 74 1016.1
20260509211903 66 282 0.0 3.0 0.00 0.00 0.00 74 1016.1
20260509211803 66 274 0.0 3.0 0.00 0.00 0.00 74 1016.3
20260509211703 66 355 0.0 3.0 0.00 0.00 0.00 74 1016.2
20260509211603 66 57 0.0 3.0 0.00 0.00 0.00 74 1016.3
20260509211503 66 27 0.0 3.0 0.00 0.00 0.00 74 1016.2
20260509211403 66 55 0.0 3.0 0.00 0.00 0.00 74 1016.2
20260509211303 66 56 0.0 3.0 0.00 0.00 0.00 74 1016.2
20260509211203 66 71 0.0 3.0 0.00 0.00 0.00 74 1016.2
20260509211103 66 79 0.0 3.0 0.00 0.00 0.00 74 1016.2
20260509211003 66 87 0.0 3.0 0.00 0.00 0.00 74 1016.2
20260509210903 66 87 0.0 3.0 0.00 0.00 0.00 74 1016.2
20260509210803 66 73 0.0 3.0 0.00 0.00 0.00 74 1016.2
20260509210703 66 99 0.0 4.0 0.00 0.00 0.00 74 1016.2
20260509210603 66 94 0.0 4.0 0.00 0.00 0.00 74 1016.2
20260509210503 66 94 0.0 4.0 0.00 0.00 0.00 74 1016.2
20260509210403 66 101 0.0 4.0 0.00 0.00 0.00 74 1016.2
20260509210303 66 103 0.0 4.0 0.00 0.00 0.00 74 1016.2
20260509210203 66 98 0.0 4.0 0.00 0.00 0.00 74 1016.2
20260509210003 66 100 0.0 4.0 0.00 0.00 0.00 74 1016.3
20260509205903 66 110 0.0 4.0 0.00 0.00 0.00 74 1016.3
20260509205803 66 127 0.0 4.0 0.00 0.00 0.00 74 1016.4
20260509205703 66 161 0.0 3.0 0.00 0.00 0.00 74 1016.4
20260509205603 66 161 0.0 3.0 0.00 0.00 0.00 74 1016.4
20260509205503 66 136 0.0 3.0 0.00 0.00 0.00 74 1016.4
20260509205403 66 131 0.0 3.0 0.00 0.00 0.00 74 1016.4
20260509205307 66 131 0.0 3.0 0.00 0.00 0.00 74 1016.4
20260509205204 66 122 0.0 3.0 0.00 0.00 0.00 74 1016.3
20260509205104 66 116 0.0 3.0 0.00 0.00 0.00 74 1016.4
20260509205004 66 118 0.0 3.0 0.00 0.00 0.00 74 1016.4
20260509204904 66 114 0.0 3.0 0.00 0.00 0.00 74 1016.4
20260509204804 66 102 0.0 3.0 0.00 0.00 0.00 75 1016.4
20260509204704 66 107 0.0 3.0 0.00 0.00 0.00 75 1016.4
20260509204604 66 107 0.0 3.0 0.00 0.00 0.00 75 1016.4
20260509204504 66 107 0.0 3.0 0.00 0.00 0.00 75 1016.4
20260509204404 66 103 0.0 3.0 0.00 0.00 0.00 75 1016.4
20260509204304 66 103 0.0 3.0 0.00 0.00 0.00 75 1016.4
20260509204204 66 98 0.0 3.0 0.00 0.00 0.00 75 1016.5
20260509204104 66 99 0.0 3.0 0.00 0.00 0.00 75 1016.4
20260509204004 66 112 0.0 1.0 0.00 0.00 0.00 75 1016.4
20260509203904 66 109 0.0 3.0 0.00 0.00 0.00 75 1016.4
20260509203804 66 110 0.0 3.0 0.00 0.00 0.00 74 1016.4
20260509203704 66 110 0.0 3.0 0.00 0.00 0.00 74 1016.5
20260509203604 66 110 0.0 3.0 0.00 0.00 0.00 74 1016.4
20260509203504 66 109 0.0 3.0 0.00 0.00 0.00 74 1016.4
20260509203404 66 109 0.0 3.0 0.00 0.00 0.00 74 1016.5
20260509203304 66 109 0.0 3.0 0.00 0.00 0.00 74 1016.4
20260509203204 66 109 0.0 3.0 0.00 0.00 0.00 74 1016.3
20260509203104 66 109 0.0 3.0 0.00 0.00 0.00 74 1016.4
20260509203004 66 109 0.0 3.0 0.00 0.00 0.00 74 1016.4
20260509202904 66 116 0.0 3.0 0.00 0.00 0.00 74 1016.4
20260509202804 66 135 0.0 1.0 0.00 0.00 0.00 74 1016.4
20260509202704 66 114 0.0 2.0 0.00 0.00 0.00 74 1016.5
20260509202604 66 109 0.0 2.0 0.00 0.00 0.00 74 1016.5
20260509202504 66 109 0.0 2.0 0.00 0.00 0.00 74 1016.5
20260509202404 66 109 0.0 2.0 0.00 0.00 0.00 74 1016.4
20260509202306 66 109 0.0 2.0 0.00 0.00 0.00 74 1016.4
20260509202204 66 109 0.0 2.0 0.00 0.00 0.00 74 1016.5
20260509202104 66 109 0.0 2.0 0.00 0.00 0.00 74 1016.5
20260509202004 66 110 0.0 2.0 0.00 0.00 0.00 75 1016.6
20260509201904 66 107 0.0 2.0 0.00 0.00 0.00 75 1016.7
20260509201804 66 105 0.0 2.0 0.00 0.00 0.00 75 1016.6
20260509201704 66 95 0.0 2.0 0.00 0.00 0.00 75 1016.6
20260509201604 66 95 0.0 2.0 0.00 0.00 0.00 75 1016.6
20260509201504 66 95 0.0 2.0 0.00 0.00 0.00 75 1016.7
20260509201404 66 95 0.0 2.0 0.00 0.00 0.00 75 1016.7
20260509201304 66 95 0.0 2.0 0.00 0.00 0.00 75 1016.6
20260509201203 66 95 0.0 2.0 0.00 0.00 0.00 75 1016.6
20260509201104 66 95 0.0 2.0 0.00 0.00 0.00 75 1016.6
20260509201003 66 74 0.0 2.0 0.00 0.00 0.00 75 1016.7
20260509200904 66 58 0.0 2.0 0.00 0.00 0.00 75 1016.7
20260509200804 66 49 0.0 2.0 0.00 0.00 0.00 75 1016.6
20260509200704 66 22 0.0 1.0 0.00 0.00 0.00 75 1016.7
20260509200604 66 22 0.0 1.0 0.00 0.00 0.00 75 1016.7
20260509200504 66 22 0.0 1.0 0.00 0.00 0.00 76 1016.7
20260509200404 66 326 0.0 1.0 0.00 0.00 0.00 76 1016.7
20260509200304 66 326 0.0 1.0 0.00 0.00 0.00 76 1016.8
20260509200204 66 123 0.0 3.0 0.00 0.00 0.00 76 1016.8
20260509200103 66 140 0.0 3.0 0.00 0.00 0.00 76 1016.8
20260509200004 66 122 0.0 3.0 0.00 0.00 0.00 76 1016.9
20260509195904 66 135 0.0 3.0 0.00 0.00 0.00 76 1016.9
20260509195804 66 135 0.0 3.0 0.00 0.00 0.00 77 1016.9
20260509195704 66 138 0.0 3.0 0.00 0.00 0.00 77 1016.9
20260509195603 66 138 0.0 3.0 0.00 0.00 0.00 77 1016.9
20260509195504 66 138 0.0 3.0 0.00 0.00 0.00 77 1016.9
20260509195403 66 119 0.0 3.0 0.00 0.00 0.00 77 1016.9
20260509195306 66 118 0.0 3.0 0.00 0.00 0.00 77 1016.9
20260509195203 66 107 0.0 4.0 0.00 0.00 0.00 77 1016.9
20260509195103 66 107 0.0 4.0 0.00 0.00 0.00 77 1016.9
20260509195004 66 112 0.0 4.0 0.00 0.00 0.00 77 1017.0
20260509194903 66 114 0.0 4.0 0.00 0.00 0.00 77 1016.9
20260509194803 66 114 1.0 4.0 0.00 0.00 0.00 77 1016.9
20260509194704 66 113 0.0 4.0 0.00 0.00 0.00 77 1016.9
20260509194603 66 113 1.0 4.0 0.00 0.00 0.00 77 1016.9
20260509194504 66 113 0.0 4.0 0.00 0.00 0.00 77 1016.9
20260509194403 66 115 0.0 4.0 0.00 0.00 0.00 77 1016.9
20260509194303 66 115 0.0 4.0 0.00 0.00 0.00 77 1016.8
20260509194203 66 116 0.0 2.0 0.00 0.00 0.00 78 1016.8
20260509194103 66 110 0.0 2.0 0.00 0.00 0.00 78 1016.8
20260509194003 66 93 0.0 4.0 0.00 0.00 0.00 78 1016.8
20260509193903 66 94 0.0 4.0 0.00 0.00 0.00 78 1016.8
20260509193803 66 94 0.0 4.0 0.00 0.00 0.00 78 1016.9
20260509193703 66 96 0.0 4.0 0.00 0.00 0.00 78 1016.9
20260509193603 66 95 0.0 4.0 0.00 0.00 0.00 78 1017.0
20260509193503 66 96 0.0 4.0 0.00 0.00 0.00 78 1017.0
20260509193403 66 97 0.0 4.0 0.00 0.00 0.00 78 1017.0
20260509193303 66 99 0.0 4.0 0.00 0.00 0.00 78 1016.9
20260509193203 66 100 0.0 4.0 0.00 0.00 0.00 78 1017.0
20260509193103 66 100 0.0 4.0 0.00 0.00 0.00 78 1017.0
20260509193003 66 107 0.0 6.0 0.00 0.00 0.00 78 1017.1
20260509192903 66 105 0.0 6.0 0.00 0.00 0.00 78 1017.1
20260509192803 66 104 0.0 6.0 0.00 0.00 0.00 78 1017.1
20260509192703 66 103 0.0 6.0 0.00 0.00 0.00 78 1017.1
20260509192603 66 104 0.0 6.0 0.00 0.00 0.00 79 1017.1
20260509192503 66 103 0.0 6.0 0.00 0.00 0.00 79 1017.0
20260509192403 66 102 0.0 6.0 0.00 0.00 0.00 79 1017.0
20260509192306 66 86 0.0 6.0 0.00 0.00 0.00 79 1017.0
20260509192203 66 100 0.0 6.0 0.00 0.00 0.00 79 1016.9
20260509192103 66 101 0.0 6.0 0.00 0.00 0.00 79 1016.9
20260509192003 66 105 0.0 2.0 0.00 0.00 0.00 79 1017.1
20260509191903 66 105 0.0 2.0 0.00 0.00 0.00 79 1017.2
20260509191803 66 105 0.0 2.0 0.00 0.00 0.00 79 1017.1
20260509191703 66 105 0.0 2.0 0.00 0.00 0.00 79 1017.1
20260509191603 66 105 0.0 2.0 0.00 0.00 0.00 79 1017.0
20260509191503 66 106 0.0 2.0 0.00 0.00 0.00 79 1017.0
20260509191403 66 106 0.0 2.0 0.00 0.00 0.00 79 1017.0
20260509191303 66 115 0.0 2.0 0.00 0.00 0.00 79 1017.1
20260509191203 66 112 0.0 2.0 0.00 0.00 0.00 79 1017.0
20260509191103 66 112 0.0 2.0 0.00 0.00 0.00 79 1017.0
20260509191003 66 116 0.0 2.0 0.00 0.00 0.00 79 1017.0
20260509190903 66 115 0.0 2.0 0.00 0.00 0.00 79 1017.0
20260509190803 66 115 0.0 2.0 0.00 0.00 0.00 79 1017.0
20260509190703 66 115 0.0 2.0 0.00 0.00 0.00 79 1017.0
20260509190603 66 113 0.0 2.0 0.00 0.00 0.00 80 1016.9
20260509190503 66 105 0.0 2.0 0.00 0.00 0.00 80 1016.8
20260509190403 66 105 0.0 2.0 0.00 0.00 0.00 80 1017.1
20260509190303 66 103 0.0 2.0 0.00 0.00 0.00 80 1017.1
20260509190203 66 101 0.0 2.0 0.00 0.00 0.00 80 1017.0
20260509190003 66 106 0.0 3.0 0.00 0.00 0.00 80 1016.9
20260509185903 66 106 0.0 3.0 0.00 0.00 0.00 80 1016.9
20260509185803 66 111 0.0 4.0 0.00 0.00 0.00 80 1016.9
20260509185704 66 107 0.0 4.0 0.00 0.00 0.00 80 1016.9
20260509185603 66 111 0.0 4.0 0.00 0.00 0.00 80 1017.1
20260509185503 66 115 0.0 4.0 0.00 0.00 0.00 80 1017.0
20260509185403 66 112 0.0 4.0 0.00 0.00 0.00 80 1017.0
20260509185306 66 112 0.0 4.0 0.00 0.00 0.00 80 1017.1
20260509185203 66 110 0.0 4.0 0.00 0.00 0.00 80 1017.0
20260509185103 66 110 0.0 4.0 0.00 0.00 0.00 80 1017.0
20260509185003 66 107 0.0 4.0 0.00 0.00 0.00 80 1016.9
20260509184903 66 107 0.0 4.0 0.00 0.00 0.00 80 1016.9
20260509184803 66 102 0.0 3.0 0.00 0.00 0.00 80 1016.9
20260509184703 66 104 0.0 2.0 0.00 0.00 0.00 80 1016.9
20260509184603 66 105 0.0 5.0 0.00 0.00 0.00 80 1016.9
20260509184503 66 104 0.0 5.0 0.00 0.00 0.00 80 1016.9
20260509184403 66 105 0.0 5.0 0.00 0.00 0.00 80 1016.8
20260509184303 66 105 0.0 5.0 0.00 0.00 0.00 80 1016.8
20260509184203 66 109 0.0 5.0 0.00 0.00 0.00 80 1016.7
20260509184103 66 109 0.0 5.0 0.00 0.00 0.00 80 1016.8
20260509184003 66 109 0.0 5.0 0.00 0.00 0.00 80 1016.8
20260509183903 66 109 0.0 5.0 0.00 0.00 0.00 80 1016.8
20260509183803 66 108 0.0 5.0 0.00 0.00 0.00 80 1016.9
20260509183703 66 107 0.0 5.0 0.00 0.00 0.00 80 1016.8
20260509183603 66 99 0.0 4.0 0.00 0.00 0.00 80 1016.8
20260509183503 66 101 1.0 4.0 0.00 0.00 0.00 80 1016.8
20260509183403 66 104 0.0 4.0 0.00 0.00 0.00 80 1016.7
20260509183303 66 103 0.0 4.0 0.00 0.00 0.00 80 1016.7
20260509183203 66 104 1.0 4.0 0.00 0.00 0.00 80 1016.7
20260509183103 66 104 1.0 4.0 0.00 0.00 0.00 80 1016.8
20260509183003 66 102 1.0 4.0 0.00 0.00 0.00 80 1016.8
20260509182903 66 102 1.0 4.0 0.00 0.00 0.00 80 1016.7
20260509182803 66 103 1.0 4.0 0.00 0.00 0.00 80 1016.7
20260509182703 67 103 1.0 4.0 0.00 0.00 0.00 80 1016.6
20260509182603 67 107 0.0 4.0 0.00 0.00 0.00 80 1016.7
20260509182503 67 104 0.0 2.0 0.00 0.00 0.00 80 1016.7
20260509182403 67 104 0.0 2.0 0.00 0.00 0.00 80 1016.8
20260509182306 67 107 0.0 2.0 0.00 0.00 0.00 79 1016.8
20260509182203 67 104 0.0 2.0 0.00 0.00 0.00 79 1016.8
20260509182103 67 106 0.0 4.0 0.00 0.00 0.00 79 1016.8
20260509182003 67 110 0.0 4.0 0.00 0.00 0.00 79 1016.8
20260509181903 67 107 0.0 4.0 0.00 0.00 0.00 79 1016.8
20260509181803 67 107 0.0 4.0 0.00 0.00 0.00 79 1016.8
20260509181703 67 107 0.0 4.0 0.00 0.00 0.00 79 1016.8
20260509181604 67 107 0.0 4.0 0.00 0.00 0.00 79 1016.8
20260509181504 67 107 0.0 4.0 0.00 0.00 0.00 79 1016.7
20260509181404 67 105 0.0 4.0 0.00 0.00 0.00 79 1016.8
20260509181304 67 106 0.0 4.0 0.00 0.00 0.00 79 1016.7
20260509181204 67 109 1.0 4.0 0.00 0.00 0.00 79 1016.7
20260509181104 67 110 0.0 4.0 0.00 0.00 0.00 79 1016.7
20260509181004 67 110 0.0 4.0 0.00 0.00 0.00 79 1016.8
20260509180904 67 115 0.0 4.0 0.00 0.00 0.00 79 1016.8
20260509180804 67 116 0.0 4.0 0.00 0.00 0.00 79 1016.7
20260509180704 67 111 0.0 4.0 0.00 0.00 0.00 79 1016.8
20260509180604 67 108 0.0 4.0 0.00 0.00 0.00 78 1016.8
20260509180504 67 113 0.0 4.0 0.00 0.00 0.00 78 1016.9
20260509180404 67 111 1.0 4.0 0.00 0.00 0.00 78 1016.9
20260509180304 67 108 1.0 4.0 0.00 0.00 0.00 78 1016.9
20260509180204 67 105 1.0 4.0 0.00 0.00 0.00 78 1016.9
20260509180104 67 106 1.0 4.0 0.00 0.00 0.00 78 1016.9
20260509180004 67 105 1.0 4.0 0.00 0.00 0.00 78 1016.8
20260509175904 67 104 1.0 4.0 0.00 0.00 0.00 78 1016.8
20260509175804 67 104 1.0 4.0 0.00 0.00 0.00 78 1016.9
20260509175704 67 106 1.0 4.0 0.00 0.00 0.00 78 1016.8
20260509175604 67 107 1.0 4.0 0.00 0.00 0.00 78 1016.8
20260509175504 67 104 1.0 4.0 0.00 0.00 0.00 78 1016.8
20260509175404 67 105 1.0 5.0 0.00 0.00 0.00 78 1016.8
20260509175306 67 107 1.0 5.0 0.00 0.00 0.00 78 1016.8
20260509175204 67 106 1.0 5.0 0.00 0.00 0.00 78 1016.8
20260509175104 67 106 0.0 5.0 0.00 0.00 0.00 78 1016.8
20260509175004 67 107 0.0 5.0 0.00 0.00 0.00 78 1016.8
20260509174904 67 108 0.0 5.0 0.00 0.00 0.00 78 1016.8
20260509174804 67 107 0.0 5.0 0.00 0.00 0.00 78 1016.8
20260509174704 67 105 0.0 5.0 0.00 0.00 0.00 78 1016.7
20260509174604 67 105 1.0 5.0 0.00 0.00 0.00 78 1016.7
20260509174504 67 104 1.0 5.0 0.00 0.00 0.00 78 1016.7
20260509174404 67 101 0.0 4.0 0.00 0.00 0.00 78 1016.7
20260509174304 67 100 0.0 4.0 0.00 0.00 0.00 78 1016.5
20260509174204 67 101 0.0 4.0 0.00 0.00 0.00 77 1016.6
20260509174104 67 102 0.0 4.0 0.00 0.00 0.00 77 1016.6
20260509174004 67 102 0.0 4.0 0.00 0.00 0.00 77 1016.5
20260509173904 67 102 0.0 4.0 0.00 0.00 0.00 77 1016.5
20260509173804 67 103 0.0 4.0 0.00 0.00 0.00 77 1016.6
20260509173704 67 103 1.0 4.0 0.00 0.00 0.00 77 1016.6
20260509173604 67 103 0.0 4.0 0.00 0.00 0.00 77 1016.6
20260509173504 67 103 0.0 4.0 0.00 0.00 0.00 77 1016.6
20260509173404 67 104 0.0 4.0 0.00 0.00 0.00 77 1016.5
20260509173304 67 106 0.0 4.0 0.00 0.00 0.00 77 1016.5
20260509173204 67 104 0.0 4.0 0.00 0.00 0.00 77 1016.5
20260509173104 68 104 0.0 4.0 0.00 0.00 0.00 77 1016.5
20260509173004 68 104 0.0 4.0 0.00 0.00 0.00 77 1016.5
20260509172904 68 104 0.0 4.0 0.00 0.00 0.00 76 1016.4
20260509172803 68 106 0.0 4.0 0.00 0.00 0.00 76 1016.4
20260509172704 68 267 0.0 3.0 0.00 0.00 0.00 76 1016.4
20260509172604 68 267 0.0 3.0 0.00 0.00 0.00 76 1016.4
20260509172504 68 267 0.0 3.0 0.00 0.00 0.00 76 1016.5
20260509172403 68 262 0.0 3.0 0.00 0.00 0.00 76 1016.5
20260509172306 68 145 0.0 3.0 0.00 0.00 0.00 76 1016.5
20260509172203 68 128 0.0 3.0 0.00 0.00 0.00 76 1016.5
20260509172104 68 114 0.0 4.0 0.00 0.00 0.00 76 1016.4
20260509172003 68 114 0.0 4.0 0.00 0.00 0.00 76 1016.4
20260509171903 68 117 0.0 4.0 0.00 0.00 0.00 76 1016.4
20260509171803 68 113 0.0 4.0 0.00 0.00 0.00 76 1016.5
20260509171704 68 112 0.0 4.0 0.00 0.00 0.00 76 1016.5
20260509171603 68 113 0.0 4.0 0.00 0.00 0.00 76 1016.4
20260509171504 68 109 1.0 6.0 0.00 0.00 0.00 76 1016.4
20260509171403 68 109 1.0 6.0 0.00 0.00 0.00 76 1016.4
20260509171303 68 109 1.0 6.0 0.00 0.00 0.00 76 1016.4
20260509171203 68 107 1.0 6.0 0.00 0.00 0.00 76 1016.4
20260509171103 68 109 1.0 6.0 0.00 0.00 0.00 75 1016.4
20260509171004 68 108 1.0 6.0 0.00 0.00 0.00 75 1016.4
20260509170903 68 107 1.0 6.0 0.00 0.00 0.00 75 1016.4
20260509170803 68 107 1.0 6.0 0.00 0.00 0.00 75 1016.4
20260509170703 68 106 0.0 6.0 0.00 0.00 0.00 75 1016.4
20260509170603 68 105 1.0 6.0 0.00 0.00 0.00 75 1016.4
20260509170504 68 107 0.0 4.0 0.00 0.00 0.00 75 1016.4
20260509170403 68 107 0.0 4.0 0.00 0.00 0.00 75 1016.4
20260509170303 68 104 0.0 4.0 0.00 0.00 0.00 75 1016.4
20260509170203 68 103 0.0 4.0 0.00 0.00 0.00 75 1016.3
20260509170003 69 105 0.0 4.0 0.00 0.00 0.00 74 1016.4
20260509165903 69 104 1.0 4.0 0.00 0.00 0.00 74 1016.4
20260509165803 69 103 1.0 4.0 0.00 0.00 0.00 74 1016.5
20260509165703 69 103 1.0 5.0 0.00 0.00 0.00 74 1016.4
20260509165603 69 101 1.0 5.0 0.00 0.00 0.00 74 1016.4
20260509165503 69 101 0.0 5.0 0.00 0.00 0.00 74 1016.4
20260509165403 69 101 0.0 5.0 0.00 0.00 0.00 74 1016.4
20260509165306 69 102 0.0 5.0 0.00 0.00 0.00 74 1016.4
20260509165203 69 103 0.0 5.0 0.00 0.00 0.00 74 1016.4
20260509165103 69 103 0.0 5.0 0.00 0.00 0.00 74 1016.4
20260509165003 69 99 0.0 5.0 0.00 0.00 0.00 74 1016.3
20260509164903 69 101 0.0 5.0 0.00 0.00 0.00 74 1016.4
20260509164803 69 103 0.0 5.0 0.00 0.00 0.00 73 1016.4
20260509164703 69 103 0.0 2.0 0.00 0.00 0.00 73 1016.4
20260509164603 69 107 0.0 2.0 0.00 0.00 0.00 73 1016.3
20260509164503 69 107 0.0 2.0 0.00 0.00 0.00 73 1016.3
20260509164403 69 107 0.0 2.0 0.00 0.00 0.00 73 1016.3
20260509164303 69 105 0.0 2.0 0.00 0.00 0.00 73 1016.3
20260509164203 69 105 0.0 2.0 0.00 0.00 0.00 73 1016.3
20260509164103 69 103 0.0 2.0 0.00 0.00 0.00 73 1016.3
20260509164003 70 107 0.0 2.0 0.00 0.00 0.00 73 1016.3
20260509163903 70 107 0.0 2.0 0.00 0.00 0.00 73 1016.3
20260509163803 70 107 0.0 2.0 0.00 0.00 0.00 73 1016.3
20260509163703 70 107 0.0 2.0 0.00 0.00 0.00 73 1016.3
20260509163603 70 107 0.0 2.0 0.00 0.00 0.00 73 1016.3
20260509163503 70 107 0.0 2.0 0.00 0.00 0.00 73 1016.3
20260509163403 70 107 0.0 2.0 0.00 0.00 0.00 73 1016.3
20260509163303 70 292 0.0 3.0 0.00 0.00 0.00 72 1016.3
20260509163203 70 112 0.0 4.0 0.00 0.00 0.00 72 1016.2
20260509163103 70 112 0.0 4.0 0.00 0.00 0.00 72 1016.2
20260509163003 70 112 0.0 4.0 0.00 0.00 0.00 72 1016.2
20260509162903 70 112 0.0 4.0 0.00 0.00 0.00 72 1016.3
20260509162803 70 112 0.0 4.0 0.00 0.00 0.00 72 1016.3
20260509162703 70 108 0.0 5.0 0.00 0.00 0.00 72 1016.2
20260509162603 70 107 1.0 5.0 0.00 0.00 0.00 72 1016.2
20260509162503 70 107 1.0 5.0 0.00 0.00 0.00 72 1016.3
20260509162403 70 105 1.0 5.0 0.00 0.00 0.00 72 1016.3
20260509162306 70 106 1.0 5.0 0.00 0.00 0.00 72 1016.3
20260509162203 70 106 1.0 5.0 0.00 0.00 0.00 72 1016.2
20260509162103 70 105 0.0 5.0 0.00 0.00 0.00 72 1016.3
20260509162003 70 105 1.0 5.0 0.00 0.00 0.00 72 1016.3
20260509161903 70 105 1.0 5.0 0.00 0.00 0.00 72 1016.3
20260509161803 70 103 1.0 5.0 0.00 0.00 0.00 72 1016.3
20260509161703 70 103 1.0 5.0 0.00 0.00 0.00 72 1016.3
20260509161603 70 102 0.0 5.0 0.00 0.00 0.00 72 1016.3
20260509161503 70 107 1.0 5.0 0.00 0.00 0.00 72 1016.3
20260509161403 70 109 1.0 5.0 0.00 0.00 0.00 72 1016.3
20260509161303 70 105 1.0 5.0 0.00 0.00 0.00 71 1016.3
20260509161203 70 104 1.0 5.0 0.00 0.00 0.00 71 1016.3
20260509161103 70 104 1.0 5.0 0.00 0.00 0.00 71 1016.3
20260509161003 70 104 1.0 4.0 0.00 0.00 0.00 71 1016.3
20260509160903 70 104 1.0 4.0 0.00 0.00 0.00 71 1016.3
20260509160803 70 105 1.0 4.0 0.00 0.00 0.00 71 1016.3
20260509160703 70 105 1.0 4.0 0.00 0.00 0.00 71 1016.3
20260509160603 71 105 1.0 4.0 0.00 0.00 0.00 71 1016.3
20260509160503 71 102 1.0 4.0 0.00 0.00 0.00 71 1016.3
20260509160403 71 99 1.0 4.0 0.00 0.00 0.00 71 1016.4
20260509160303 71 102 0.0 4.0 0.00 0.00 0.00 71 1016.4
20260509160203 71 105 0.0 4.0 0.00 0.00 0.00 71 1016.4
20260509160003 71 108 1.0 4.0 0.00 0.00 0.00 71 1016.4
20260509155903 71 106 1.0 4.0 0.00 0.00 0.00 71 1016.4
20260509155803 71 109 1.0 4.0 0.00 0.00 0.00 71 1016.3
20260509155703 71 108 1.0 4.0 0.00 0.00 0.00 71 1016.4
20260509155603 71 109 1.0 4.0 0.00 0.00 0.00 71 1016.4
20260509155503 71 109 1.0 4.0 0.00 0.00 0.00 71 1016.4
20260509155403 71 109 1.0 4.0 0.00 0.00 0.00 71 1016.4
20260509155306 71 112 1.0 4.0 0.00 0.00 0.00 71 1016.4
20260509155203 71 112 1.0 4.0 0.00 0.00 0.00 70 1016.4
20260509155103 71 112 1.0 4.0 0.00 0.00 0.00 71 1016.4
20260509155004 71 111 1.0 4.0 0.00 0.00 0.00 70 1016.4
20260509154904 71 114 1.0 4.0 0.00 0.00 0.00 70 1016.5
20260509154804 71 111 1.0 4.0 0.00 0.00 0.00 70 1016.5
20260509154704 71 111 1.0 4.0 0.00 0.00 0.00 70 1016.5
20260509154604 71 111 1.0 4.0 0.00 0.00 0.00 70 1016.4
20260509154504 71 112 1.0 4.0 0.00 0.00 0.00 70 1016.4
20260509154404 71 114 0.0 4.0 0.00 0.00 0.00 71 1016.4
20260509154304 71 109 0.0 4.0 0.00 0.00 0.00 70 1016.4
20260509154204 71 107 0.0 4.0 0.00 0.00 0.00 70 1016.5
20260509154104 71 106 0.0 4.0 0.00 0.00 0.00 70 1016.5
20260509154004 71 105 0.0 2.0 0.00 0.00 0.00 70 1016.5
20260509153904 71 105 0.0 3.0 0.00 0.00 0.00 71 1016.5
20260509153804 71 107 0.0 3.0 0.00 0.00 0.00 71 1016.4
20260509153704 71 108 0.0 3.0 0.00 0.00 0.00 71 1016.5
20260509153604 71 108 0.0 3.0 0.00 0.00 0.00 71 1016.4
20260509153504 71 107 0.0 3.0 0.00 0.00 0.00 71 1016.5
20260509153404 71 106 0.0 3.0 0.00 0.00 0.00 71 1016.5
20260509153304 71 109 0.0 3.0 0.00 0.00 0.00 71 1016.5
20260509153204 71 117 0.0 3.0 0.00 0.00 0.00 71 1016.5
20260509153104 71 119 0.0 3.0 0.00 0.00 0.00 71 1016.5
20260509153004 71 119 0.0 3.0 0.00 0.00 0.00 71 1016.5
20260509152904 71 133 0.0 3.0 0.00 0.00 0.00 71 1016.4
20260509152804 71 112 0.0 3.0 0.00 0.00 0.00 71 1016.4
20260509152704 71 109 0.0 3.0 0.00 0.00 0.00 71 1016.4
20260509152604 71 95 0.0 4.0 0.00 0.00 0.00 71 1016.4
20260509152504 71 97 0.0 4.0 0.00 0.00 0.00 71 1016.4
20260509152404 71 98 0.0 4.0 0.00 0.00 0.00 71 1016.4
20260509152306 71 99 0.0 4.0 0.00 0.00 0.00 71 1016.4
20260509152204 71 103 1.0 5.0 0.00 0.00 0.00 71 1016.4
20260509152104 71 101 1.0 5.0 0.00 0.00 0.00 71 1016.4
20260509152004 71 100 1.0 5.0 0.00 0.00 0.00 71 1016.4
20260509151904 71 104 1.0 5.0 0.00 0.00 0.00 71 1016.4
20260509151804 71 107 1.0 5.0 0.00 0.00 0.00 71 1016.4
20260509151704 71 107 1.0 5.0 0.00 0.00 0.00 71 1016.4
20260509151604 71 111 1.0 5.0 0.00 0.00 0.00 71 1016.4
20260509151504 71 110 1.0 5.0 0.00 0.00 0.00 71 1016.5
20260509151404 71 108 1.0 5.0 0.00 0.00 0.00 71 1016.4
20260509151304 71 108 1.0 5.0 0.00 0.00 0.00 71 1016.4
20260509151204 71 108 1.0 5.0 0.00 0.00 0.00 71 1016.5
20260509151103 71 108 1.0 5.0 0.00 0.00 0.00 71 1016.5
20260509151003 71 108 1.0 5.0 0.00 0.00 0.00 71 1016.4
20260509150903 71 107 1.0 5.0 0.00 0.00 0.00 71 1016.4
20260509150803 71 107 1.0 4.0 0.00 0.00 0.00 72 1016.5
20260509150703 71 108 1.0 4.0 0.00 0.00 0.00 72 1016.5
20260509150603 71 110 1.0 4.0 0.00 0.00 0.00 72 1016.5
20260509150503 71 110 1.0 4.0 0.00 0.00 0.00 72 1016.6
20260509150403 71 110 1.0 4.0 0.00 0.00 0.00 72 1016.5
20260509150303 71 110 1.0 4.0 0.00 0.00 0.00 71 1016.6
20260509150203 71 110 1.0 6.0 0.00 0.00 0.00 71 1016.5
20260509150103 71 108 1.0 6.0 0.00 0.00 0.00 71 1016.5
20260509150004 71 108 1.0 6.0 0.00 0.00 0.00 71 1016.4
20260509145903 71 107 1.0 6.0 0.00 0.00 0.00 71 1016.4
20260509145803 71 106 1.0 6.0 0.00 0.00 0.00 71 1016.4
20260509145703 71 105 1.0 6.0 0.00 0.00 0.00 71 1016.4
20260509145603 71 103 1.0 6.0 0.00 0.00 0.00 71 1016.4
20260509145503 71 104 1.0 6.0 0.00 0.00 0.00 71 1016.5
20260509145403 71 105 1.0 6.0 0.00 0.00 0.00 71 1016.4
20260509145306 71 106 1.0 6.0 0.00 0.00 0.00 71 1016.5
20260509145203 71 106 1.0 5.0 0.00 0.00 0.00 71 1016.5
20260509145103 71 105 1.0 5.0 0.00 0.00 0.00 71 1016.4
20260509145003 71 106 1.0 5.0 0.00 0.00 0.00 71 1016.4
20260509144903 71 107 1.0 4.0 0.00 0.00 0.00 71 1016.3
20260509144803 71 109 1.0 4.0 0.00 0.00 0.00 70 1016.4
20260509144703 71 109 1.0 4.0 0.00 0.00 0.00 70 1016.4
20260509144603 71 110 1.0 4.0 0.00 0.00 0.00 70 1016.4
20260509144503 71 111 1.0 4.0 0.00 0.00 0.00 70 1016.4
20260509144403 71 111 1.0 4.0 0.00 0.00 0.00 70 1016.4
20260509144303 71 110 1.0 4.0 0.00 0.00 0.00 70 1016.4
20260509144203 71 110 1.0 4.0 0.00 0.00 0.00 70 1016.4
20260509144103 72 109 1.0 5.0 0.00 0.00 0.00 70 1016.5
20260509144003 72 108 1.0 5.0 0.00 0.00 0.00 70 1016.4
20260509143903 71 108 1.0 5.0 0.00 0.00 0.00 70 1016.4
20260509143803 71 107 1.0 5.0 0.00 0.00 0.00 70 1016.4
20260509143703 71 108 1.0 5.0 0.00 0.00 0.00 70 1016.5
20260509143603 71 105 1.0 5.0 0.00 0.00 0.00 70 1016.5
20260509143503 71 105 1.0 5.0 0.00 0.00 0.00 70 1016.5
20260509143403 71 105 1.0 5.0 0.00 0.00 0.00 70 1016.5
20260509143303 72 105 1.0 5.0 0.00 0.00 0.00 70 1016.5
20260509143203 71 106 1.0 5.0 0.00 0.00 0.00 70 1016.5
20260509143103 71 109 1.0 4.0 0.00 0.00 0.00 70 1016.5
20260509143003 71 108 1.0 4.0 0.00 0.00 0.00 70 1016.6
20260509142903 71 108 1.0 4.0 0.00 0.00 0.00 70 1016.6
20260509142803 71 107 1.0 4.0 0.00 0.00 0.00 70 1016.5
20260509142703 71 107 1.0 4.0 0.00 0.00 0.00 70 1016.6
20260509142603 71 107 1.0 4.0 0.00 0.00 0.00 70 1016.5
20260509142503 71 107 1.0 4.0 0.00 0.00 0.00 70 1016.5
20260509142403 72 107 1.0 4.0 0.00 0.00 0.00 70 1016.6
20260509142306 72 108 1.0 6.0 0.00 0.00 0.00 70 1016.6
20260509142203 72 108 1.0 6.0 0.00 0.00 0.00 70 1016.5
20260509142103 72 110 1.0 6.0 0.00 0.00 0.00 70 1016.6
20260509142003 72 110 1.0 6.0 0.00 0.00 0.00 70 1016.6
20260509141903 72 113 1.0 6.0 0.00 0.00 0.00 70 1016.6
20260509141803 72 113 1.0 6.0 0.00 0.00 0.00 70 1016.6
20260509141703 72 113 1.0 6.0 0.00 0.00 0.00 70 1016.6
20260509141603 72 112 1.0 6.0 0.00 0.00 0.00 70 1016.5
20260509141503 72 112 1.0 6.0 0.00 0.00 0.00 70 1016.5
20260509141403 72 112 1.0 6.0 0.00 0.00 0.00 70 1016.5
20260509141303 72 113 1.0 7.0 0.00 0.00 0.00 70 1016.5
20260509141203 72 113 1.0 7.0 0.00 0.00 0.00 70 1016.6
20260509141103 72 111 1.0 7.0 0.00 0.00 0.00 70 1016.6
20260509141003 72 110 1.0 7.0 0.00 0.00 0.00 70 1016.6
20260509140903 72 105 1.0 7.0 0.00 0.00 0.00 70 1016.7
20260509140803 72 106 1.0 7.0 0.00 0.00 0.00 70 1016.7
20260509140703 72 106 1.0 7.0 0.00 0.00 0.00 70 1016.7
20260509140603 72 108 1.0 7.0 0.00 0.00 0.00 70 1016.6
20260509140503 72 107 1.0 7.0 0.00 0.00 0.00 70 1016.6
20260509140403 72 108 1.0 7.0 0.00 0.00 0.00 70 1016.6
20260509140303 72 105 1.0 4.0 0.00 0.00 0.00 70 1016.7
20260509140203 72 107 1.0 6.0 0.00 0.00 0.00 70 1016.6
20260509140103 72 103 1.0 6.0 0.00 0.00 0.00 70 1016.7
20260509140004 72 107 1.0 6.0 0.00 0.00 0.00 70 1016.6
20260509135903 72 109 1.0 6.0 0.00 0.00 0.00 70 1016.5
20260509135803 72 108 1.0 6.0 0.00 0.00 0.00 70 1016.7
20260509135703 72 107 1.0 6.0 0.00 0.00 0.00 70 1016.7
20260509135603 72 108 1.0 6.0 0.00 0.00 0.00 70 1016.7
20260509135503 72 107 1.0 6.0 0.00 0.00 0.00 70 1016.7
20260509135403 72 107 1.0 6.0 0.00 0.00 0.00 70 1016.6
20260509135306 72 106 1.0 6.0 0.00 0.00 0.00 70 1016.6
20260509135203 72 103 1.0 6.0 0.00 0.00 0.00 71 1016.6
20260509135103 72 108 1.0 6.0 0.00 0.00 0.00 71 1016.8
20260509135003 72 104 1.0 8.0 0.00 0.00 0.00 71 1016.8
20260509134903 72 105 1.0 8.0 0.00 0.00 0.00 71 1016.7
20260509134803 72 104 1.0 8.0 0.00 0.00 0.00 71 1016.6
20260509134703 72 105 1.0 8.0 0.00 0.00 0.00 71 1016.6
20260509134603 72 104 1.0 8.0 0.00 0.00 0.00 71 1016.7
20260509134503 72 104 1.0 8.0 0.00 0.00 0.00 71 1016.6
20260509134403 72 109 1.0 8.0 0.00 0.00 0.00 71 1016.7
20260509134303 72 109 1.0 8.0 0.00 0.00 0.00 71 1016.7
20260509134203 72 110 1.0 8.0 0.00 0.00 0.00 71 1016.8
20260509134103 72 111 1.0 8.0 0.00 0.00 0.00 70 1016.7
20260509134003 72 115 1.0 4.0 0.00 0.00 0.00 70 1016.8
20260509133903 72 112 1.0 4.0 0.00 0.00 0.00 70 1016.8
20260509133803 72 111 1.0 4.0 0.00 0.00 0.00 70 1016.8
20260509133703 72 112 1.0 4.0 0.00 0.00 0.00 70 1016.8
20260509133603 72 113 1.0 4.0 0.00 0.00 0.00 70 1016.7
20260509133503 72 112 1.0 4.0 0.00 0.00 0.00 70 1016.7
20260509133403 72 106 1.0 4.0 0.00 0.00 0.00 70 1016.7
20260509133303 72 108 1.0 4.0 0.00 0.00 0.00 70 1016.7
20260509133203 72 107 1.0 4.0 0.00 0.00 0.00 70 1016.8
20260509133103 72 108 1.0 4.0 0.00 0.00 0.00 70 1016.8
20260509133003 72 108 1.0 4.0 0.00 0.00 0.00 70 1016.7
20260509132903 72 107 1.0 7.0 0.00 0.00 0.00 70 1016.8
20260509132803 72 109 1.0 7.0 0.00 0.00 0.00 70 1016.7
20260509132703 72 109 1.0 7.0 0.00 0.00 0.00 70 1016.8
20260509132603 72 112 1.0 7.0 0.00 0.00 0.00 70 1016.8
20260509132503 72 112 1.0 7.0 0.00 0.00 0.00 70 1016.8
20260509132403 72 112 1.0 7.0 0.00 0.00 0.00 70 1016.7
20260509132306 72 110 1.0 7.0 0.00 0.00 0.00 70 1016.7
20260509132204 72 110 1.0 7.0 0.00 0.00 0.00 70 1016.8
20260509132104 72 109 1.0 7.0 0.00 0.00 0.00 70 1016.8
20260509132004 72 108 1.0 7.0 0.00 0.00 0.00 70 1016.7
20260509131904 72 110 1.0 5.0 0.00 0.00 0.00 70 1016.6
20260509131804 72 110 1.0 5.0 0.00 0.00 0.00 70 1016.7
20260509131704 72 110 1.0 5.0 0.00 0.00 0.00 70 1016.7
20260509131604 72 109 1.0 5.0 0.00 0.00 0.00 70 1016.7
20260509131504 72 107 1.0 5.0 0.00 0.00 0.00 70 1016.7
20260509131404 72 107 1.0 5.0 0.00 0.00 0.00 70 1016.7
20260509131304 72 109 1.0 5.0 0.00 0.00 0.00 70 1016.7
20260509131204 72 112 1.0 4.0 0.00 0.00 0.00 70 1016.8
20260509131104 72 113 1.0 4.0 0.00 0.00 0.00 70 1016.8
20260509131004 72 114 1.0 4.0 0.00 0.00 0.00 70 1016.7
20260509130904 72 112 1.0 4.0 0.00 0.00 0.00 70 1016.8
20260509130804 72 113 1.0 4.0 0.00 0.00 0.00 70 1016.8
20260509130704 72 111 1.0 4.0 0.00 0.00 0.00 70 1016.7
20260509130604 72 112 1.0 4.0 0.00 0.00 0.00 70 1016.8
20260509130504 72 108 1.0 6.0 0.00 0.00 0.00 70 1016.8
20260509130404 72 108 1.0 6.0 0.00 0.00 0.00 71 1016.7
20260509130304 72 106 1.0 6.0 0.00 0.00 0.00 71 1016.7
20260509130204 72 105 1.0 6.0 0.00 0.00 0.00 71 1016.7
20260509130104 72 106 1.0 6.0 0.00 0.00 0.00 71 1016.7
20260509130004 72 105 1.0 6.0 0.00 0.00 0.00 71 1016.7
20260509125904 72 106 1.0 6.0 0.00 0.00 0.00 71 1016.8
20260509125804 72 108 1.0 6.0 0.00 0.00 0.00 71 1016.8
20260509125704 72 109 1.0 6.0 0.00 0.00 0.00 71 1016.6
20260509125604 72 109 2.0 6.0 0.00 0.00 0.00 71 1016.6
20260509125504 72 111 1.0 6.0 0.00 0.00 0.00 71 1016.6
20260509125404 72 111 2.0 6.0 0.00 0.00 0.00 71 1016.7
20260509125307 72 111 2.0 6.0 0.00 0.00 0.00 71 1016.7
20260509125204 72 109 2.0 6.0 0.00 0.00 0.00 71 1016.7
20260509125104 72 108 1.0 6.0 0.00 0.00 0.00 71 1016.7
20260509125004 72 108 2.0 6.0 0.00 0.00 0.00 70 1016.8
20260509124904 72 108 2.0 6.0 0.00 0.00 0.00 71 1016.8
20260509124803 72 106 2.0 6.0 0.00 0.00 0.00 71 1016.8
20260509124704 72 104 2.0 6.0 0.00 0.00 0.00 71 1016.8
20260509124604 72 102 2.0 6.0 0.00 0.00 0.00 71 1016.7
20260509124504 72 103 2.0 6.0 0.00 0.00 0.00 71 1016.8
20260509124404 72 103 2.0 7.0 0.00 0.00 0.00 71 1016.8
20260509124303 72 104 2.0 7.0 0.00 0.00 0.00 71 1016.8
20260509124203 72 105 2.0 8.0 0.00 0.00 0.00 71 1016.7
20260509124103 72 106 2.0 8.0 0.00 0.00 0.00 71 1016.8
20260509124003 72 107 2.0 8.0 0.00 0.00 0.00 70 1016.8
20260509123904 72 106 2.0 8.0 0.00 0.00 0.00 70 1016.8
20260509123804 72 107 2.0 8.0 0.00 0.00 0.00 70 1016.9
20260509123703 72 109 2.0 8.0 0.00 0.00 0.00 70 1016.8
20260509123604 72 109 2.0 8.0 0.00 0.00 0.00 70 1016.7
20260509123503 72 108 2.0 8.0 0.00 0.00 0.00 70 1016.8
20260509123403 72 108 2.0 8.0 0.00 0.00 0.00 70 1016.7
20260509123303 72 107 2.0 8.0 0.00 0.00 0.00 70 1016.7
20260509123203 72 108 2.0 6.0 0.00 0.00 0.00 70 1016.7
20260509123103 72 108 2.0 6.0 0.00 0.00 0.00 70 1016.6
20260509123003 72 107 2.0 6.0 0.00 0.00 0.00 70 1016.6
20260509122903 72 107 2.0 7.0 0.00 0.00 0.00 70 1016.6
20260509122803 72 108 2.0 7.0 0.00 0.00 0.00 70 1016.6
20260509122703 72 106 2.0 7.0 0.00 0.00 0.00 70 1016.7
20260509122603 72 107 2.0 7.0 0.00 0.00 0.00 70 1016.7
20260509122503 72 108 2.0 7.0 0.00 0.00 0.00 70 1016.6
20260509122403 72 110 2.0 7.0 0.00 0.00 0.00 70 1016.7
20260509122306 72 109 2.0 7.0 0.00 0.00 0.00 69 1016.6
20260509122203 72 109 3.0 7.0 0.00 0.00 0.00 69 1016.6
20260509122103 72 109 3.0 7.0 0.00 0.00 0.00 69 1016.6
20260509122003 72 110 3.0 7.0 0.00 0.00 0.00 69 1016.6
20260509121903 73 112 2.0 7.0 0.00 0.00 0.00 69 1016.7
20260509121803 72 111 2.0 7.0 0.00 0.00 0.00 69 1016.6
20260509121703 73 112 2.0 7.0 0.00 0.00 0.00 69 1016.6
20260509121603 73 111 2.0 7.0 0.00 0.00 0.00 69 1016.7
20260509121503 73 110 2.0 7.0 0.00 0.00 0.00 69 1016.6
20260509121403 73 109 2.0 7.0 0.00 0.00 0.00 69 1016.6
20260509121303 73 110 2.0 6.0 0.00 0.00 0.00 69 1016.6
20260509121203 73 110 2.0 5.0 0.00 0.00 0.00 69 1016.6
20260509121103 73 111 1.0 5.0 0.00 0.00 0.00 69 1016.6
20260509121003 73 110 1.0 5.0 0.00 0.00 0.00 69 1016.6
20260509120903 73 108 1.0 5.0 0.00 0.00 0.00 69 1016.6
20260509120803 73 108 1.0 5.0 0.00 0.00 0.00 69 1016.5
20260509120703 73 107 1.0 5.0 0.00 0.00 0.00 69 1016.7
20260509120603 73 107 1.0 5.0 0.00 0.00 0.00 68 1016.6
20260509120503 73 109 2.0 5.0 0.00 0.00 0.00 68 1016.7
20260509120403 73 107 1.0 5.0 0.00 0.00 0.00 68 1016.7
20260509120303 73 110 2.0 5.0 0.00 0.00 0.00 68 1016.7
20260509120203 73 109 2.0 5.0 0.00 0.00 0.00 68 1016.7
20260509120003 74 108 1.0 5.0 0.00 0.00 0.00 68 1016.5
20260509115903 74 108 1.0 5.0 0.00 0.00 0.00 68 1016.6
20260509115803 73 109 1.0 5.0 0.00 0.00 0.00 68 1016.7
20260509115703 74 109 1.0 5.0 0.00 0.00 0.00 68 1016.6
20260509115603 74 109 1.0 5.0 0.00 0.00 0.00 67 1016.6
20260509115503 74 109 1.0 5.0 0.00 0.00 0.00 67 1016.7
20260509115403 74 108 1.0 5.0 0.00 0.00 0.00 67 1016.6
20260509115306 74 104 0.0 5.0 0.00 0.00 0.00 67 1016.7
20260509115203 74 103 0.0 5.0 0.00 0.00 0.00 67 1016.6
20260509115103 74 104 0.0 5.0 0.00 0.00 0.00 67 1016.8
20260509115003 74 104 0.0 5.0 0.00 0.00 0.00 67 1016.8
20260509114903 74 106 0.0 5.0 0.00 0.00 0.00 67 1016.8
20260509114803 73 113 1.0 5.0 0.00 0.00 0.00 68 1016.8
20260509114704 73 111 1.0 5.0 0.00 0.00 0.00 67 1016.8
20260509114603 73 111 1.0 5.0 0.00 0.00 0.00 68 1016.8
20260509114503 73 110 1.0 5.0 0.00 0.00 0.00 68 1016.8
20260509114403 73 113 1.0 5.0 0.00 0.00 0.00 68 1016.8
20260509114303 73 113 1.0 5.0 0.00 0.00 0.00 68 1016.9
20260509114203 73 111 1.0 5.0 0.00 0.00 0.00 68 1016.9
20260509114103 73 112 1.0 5.0 0.00 0.00 0.00 68 1016.8
20260509114003 73 112 1.0 5.0 0.00 0.00 0.00 68 1016.8
20260509113903 73 112 1.0 5.0 0.00 0.00 0.00 68 1016.8
20260509113803 73 108 1.0 5.0 0.00 0.00 0.00 68 1016.8
20260509113703 73 110 1.0 5.0 0.00 0.00 0.00 68 1016.8
20260509113603 73 110 1.0 5.0 0.00 0.00 0.00 69 1016.8
20260509113503 73 110 1.0 5.0 0.00 0.00 0.00 69 1016.8
20260509113403 73 111 1.0 5.0 0.00 0.00 0.00 69 1016.8
20260509113303 73 109 1.0 6.0 0.00 0.00 0.00 69 1016.8
20260509113203 73 110 1.0 6.0 0.00 0.00 0.00 69 1016.8
20260509113103 73 108 1.0 6.0 0.00 0.00 0.00 69 1016.8
20260509113003 73 107 1.0 6.0 0.00 0.00 0.00 69 1016.8
20260509112903 73 107 1.0 6.0 0.00 0.00 0.00 69 1016.8
20260509112803 73 107 1.0 6.0 0.00 0.00 0.00 69 1016.8
20260509112703 73 107 1.0 6.0 0.00 0.00 0.00 69 1016.9
20260509112603 73 105 1.0 6.0 0.00 0.00 0.00 69 1016.9
20260509112503 73 105 1.0 6.0 0.00 0.00 0.00 69 1016.9
20260509112403 73 106 1.0 6.0 0.00 0.00 0.00 69 1016.9
20260509112306 73 107 1.0 6.0 0.00 0.00 0.00 69 1016.9
20260509112203 73 107 1.0 6.0 0.00 0.00 0.00 69 1016.8
20260509112103 73 106 1.0 6.0 0.00 0.00 0.00 69 1016.9
20260509112003 73 105 1.0 6.0 0.00 0.00 0.00 68 1016.8
20260509111903 73 105 1.0 6.0 0.00 0.00 0.00 69 1016.9
20260509111803 73 103 1.0 6.0 0.00 0.00 0.00 69 1016.8
20260509111703 73 100 1.0 6.0 0.00 0.00 0.00 69 1016.8
20260509111603 73 101 1.0 6.0 0.00 0.00 0.00 69 1016.9
20260509111503 72 100 1.0 6.0 0.00 0.00 0.00 69 1016.9
20260509111403 72 99 1.0 6.0 0.00 0.00 0.00 69 1016.8
20260509111303 72 100 1.0 6.0 0.00 0.00 0.00 69 1016.9
20260509111203 72 99 1.0 7.0 0.00 0.00 0.00 69 1016.9
20260509111103 72 101 1.0 7.0 0.00 0.00 0.00 69 1016.9
20260509111003 72 99 1.0 7.0 0.00 0.00 0.00 69 1016.9
20260509110903 72 99 1.0 7.0 0.00 0.00 0.00 69 1016.9
20260509110804 72 97 1.0 7.0 0.00 0.00 0.00 70 1017.0
20260509110704 72 100 1.0 7.0 0.00 0.00 0.00 70 1017.0
20260509110604 72 101 1.0 7.0 0.00 0.00 0.00 70 1016.9
20260509110504 72 105 1.0 7.0 0.00 0.00 0.00 70 1016.8
20260509110404 71 107 1.0 7.0 0.00 0.00 0.00 70 1016.9
20260509110304 71 108 1.0 7.0 0.00 0.00 0.00 69 1016.9
20260509110204 71 107 1.0 7.0 0.00 0.00 0.00 69 1016.9
20260509110104 71 109 1.0 6.0 0.00 0.00 0.00 69 1017.0
20260509110004 71 113 1.0 6.0 0.00 0.00 0.00 70 1016.9
20260509105904 71 113 1.0 6.0 0.00 0.00 0.00 69 1016.9
20260509105804 71 119 0.0 6.0 0.00 0.00 0.00 69 1016.9
20260509105704 71 119 0.0 6.0 0.00 0.00 0.00 69 1016.9
20260509105604 71 119 0.0 6.0 0.00 0.00 0.00 70 1016.8
20260509105504 71 114 0.0 4.0 0.00 0.00 0.00 70 1016.9
20260509105404 71 111 0.0 4.0 0.00 0.00 0.00 70 1016.9
20260509105306 71 115 0.0 4.0 0.00 0.00 0.00 70 1016.8
20260509105204 71 114 1.0 4.0 0.00 0.00 0.00 70 1016.9
20260509105104 71 113 1.0 4.0 0.00 0.00 0.00 70 1016.9
20260509105004 71 112 1.0 6.0 0.00 0.00 0.00 70 1016.9
20260509104904 71 118 1.0 6.0 0.00 0.00 0.00 70 1016.9
20260509104804 71 122 1.0 6.0 0.00 0.00 0.00 70 1016.9
20260509104704 71 144 1.0 6.0 0.00 0.00 0.00 70 1016.9
20260509104604 71 200 1.0 6.0 0.00 0.00 0.00 70 1016.9
20260509104504 71 235 1.0 7.0 0.00 0.00 0.00 71 1016.9
20260509104404 71 233 1.0 7.0 0.00 0.00 0.00 71 1016.9
20260509104304 71 270 2.0 7.0 0.00 0.00 0.00 71 1016.9
20260509104204 71 278 2.0 7.0 0.00 0.00 0.00 71 1016.9
20260509104108 71 280 3.0 10.0 0.00 0.00 0.00 71 1016.9
20260509104004 71 283 3.0 10.0 0.00 0.00 0.00 71 1016.9
20260509103904 71 284 3.0 10.0 0.00 0.00 0.00 71 1016.9
20260509103804 71 282 3.0 10.0 0.00 0.00 0.00 70 1016.9
20260509103704 71 281 3.0 10.0 0.00 0.00 0.00 71 1016.9
20260509103604 71 282 3.0 10.0 0.00 0.00 0.00 71 1016.9
20260509103504 71 283 3.0 10.0 0.00 0.00 0.00 71 1017.0
20260509103404 71 283 3.0 10.0 0.00 0.00 0.00 71 1016.9
20260509103304 71 285 3.0 10.0 0.00 0.00 0.00 71 1016.9
20260509103204 71 285 2.0 10.0 0.00 0.00 0.00 71 1016.9
20260509103104 71 285 2.0 8.0 0.00 0.00 0.00 71 1016.9
20260509103004 71 271 1.0 6.0 0.00 0.00 0.00 71 1016.9
20260509102904 71 233 1.0 6.0 0.00 0.00 0.00 71 1017.0
20260509102804 71 273 1.0 5.0 0.00 0.00 0.00 71 1017.0
20260509102704 71 253 1.0 5.0 0.00 0.00 0.00 72 1017.0
20260509102604 71 156 1.0 6.0 0.00 0.00 0.00 72 1017.0
20260509102504 71 138 1.0 6.0 0.00 0.00 0.00 71 1017.0
20260509102404 71 126 1.0 6.0 0.00 0.00 0.00 72 1017.0
20260509102305 71 124 1.0 6.0 0.00 0.00 0.00 71 1017.0
20260509102204 71 132 1.0 6.0 0.00 0.00 0.00 72 1017.0
20260509102104 71 136 1.0 6.0 0.00 0.00 0.00 72 1017.0
20260509102004 71 154 1.0 6.0 0.00 0.00 0.00 72 1016.9
20260509101904 70 201 2.0 6.0 0.00 0.00 0.00 72 1017.0
20260509101804 70 190 1.0 6.0 0.00 0.00 0.00 72 1017.0
20260509101703 70 267 2.0 9.0 0.00 0.00 0.00 72 1016.9
20260509101603 70 266 2.0 9.0 0.00 0.00 0.00 72 1017.0
20260509101504 70 261 2.0 9.0 0.00 0.00 0.00 72 1017.0
20260509101404 70 275 2.0 9.0 0.00 0.00 0.00 72 1017.1
20260509101304 70 282 2.0 9.0 0.00 0.00 0.00 72 1017.0
20260509101203 70 286 3.0 11.0 0.00 0.00 0.00 72 1017.0
20260509101104 70 288 3.0 11.0 0.00 0.00 0.00 72 1017.0
20260509101004 70 289 4.0 11.0 0.00 0.00 0.00 72 1017.1
20260509100903 70 289 4.0 11.0 0.00 0.00 0.00 72 1017.0
20260509100804 70 288 4.0 11.0 0.00 0.00 0.00 72 1016.9
20260509100703 70 290 4.0 11.0 0.00 0.00 0.00 72 1016.9
20260509100603 70 289 4.0 11.0 0.00 0.00 0.00 72 1016.9
20260509100503 70 289 3.0 11.0 0.00 0.00 0.00 72 1016.9
20260509100403 70 288 3.0 11.0 0.00 0.00 0.00 72 1016.8
20260509100303 70 288 3.0 11.0 0.00 0.00 0.00 72 1016.9
20260509100203 71 283 2.0 9.0 0.00 0.00 0.00 72 1016.9
20260509100103 71 277 2.0 9.0 0.00 0.00 0.00 72 1016.9
20260509100004 71 249 2.0 9.0 0.00 0.00 0.00 72 1016.9
20260509095903 71 223 2.0 9.0 0.00 0.00 0.00 71 1016.8
20260509095803 71 240 2.0 9.0 0.00 0.00 0.00 71 1016.9
20260509095703 71 139 2.0 8.0 0.00 0.00 0.00 71 1016.9
20260509095603 71 129 1.0 6.0 0.00 0.00 0.00 71 1017.0
20260509095503 71 129 1.0 6.0 0.00 0.00 0.00 71 1017.0
20260509095403 71 124 1.0 6.0 0.00 0.00 0.00 71 1017.0
20260509095306 71 124 1.0 6.0 0.00 0.00 0.00 71 1016.9
20260509095203 71 117 1.0 6.0 0.00 0.00 0.00 72 1016.9
20260509095103 71 132 1.0 6.0 0.00 0.00 0.00 72 1017.0
20260509095003 71 88 1.0 7.0 0.00 0.00 0.00 72 1017.1
20260509094903 71 88 1.0 7.0 0.00 0.00 0.00 72 1017.0
20260509094803 71 347 2.0 7.0 0.00 0.00 0.00 72 1016.9
20260509094703 71 298 2.0 7.0 0.00 0.00 0.00 72 1016.9
20260509094603 71 298 2.0 7.0 0.00 0.00 0.00 71 1016.9
20260509094503 71 300 2.0 7.0 0.00 0.00 0.00 71 1016.9
20260509094403 71 299 2.0 7.0 0.00 0.00 0.00 71 1017.0
20260509094303 71 296 2.0 7.0 0.00 0.00 0.00 71 1016.9
20260509094203 71 296 2.0 7.0 0.00 0.00 0.00 71 1017.0
20260509094103 71 297 2.0 7.0 0.00 0.00 0.00 71 1016.9
20260509094003 71 288 2.0 7.0 0.00 0.00 0.00 71 1016.9
20260509093903 71 287 2.0 7.0 0.00 0.00 0.00 71 1016.9
20260509093803 71 285 1.0 7.0 0.00 0.00 0.00 71 1017.0
20260509093703 71 258 1.0 6.0 0.00 0.00 0.00 71 1016.9
20260509093603 71 237 1.0 6.0 0.00 0.00 0.00 71 1016.9
20260509093503 71 268 2.0 7.0 0.00 0.00 0.00 71 1016.9
20260509093403 71 267 1.0 7.0 0.00 0.00 0.00 71 1017.0
20260509093303 71 263 1.0 7.0 0.00 0.00 0.00 71 1017.0
20260509093203 71 255 1.0 7.0 0.00 0.00 0.00 71 1016.9
20260509093103 71 218 2.0 7.0 0.00 0.00 0.00 71 1016.9
20260509093003 71 236 2.0 7.0 0.00 0.00 0.00 71 1016.9
20260509092903 71 261 2.0 7.0 0.00 0.00 0.00 70 1016.9
20260509092803 71 284 2.0 10.0 0.00 0.00 0.00 70 1016.9
20260509092703 71 289 3.0 10.0 0.00 0.00 0.00 70 1016.9
20260509092603 71 291 3.0 10.0 0.00 0.00 0.00 70 1017.0
20260509092503 71 290 3.0 10.0 0.00 0.00 0.00 70 1017.0
20260509092403 71 290 3.0 10.0 0.00 0.00 0.00 70 1017.0
20260509092305 71 290 3.0 10.0 0.00 0.00 0.00 70 1017.0
20260509092203 71 292 3.0 10.0 0.00 0.00 0.00 69 1017.0
20260509092103 71 294 3.0 10.0 0.00 0.00 0.00 69 1016.9
20260509092003 71 294 3.0 10.0 0.00 0.00 0.00 68 1017.0
20260509091903 71 294 3.0 10.0 0.00 0.00 0.00 68 1016.9
20260509091803 71 294 3.0 10.0 0.00 0.00 0.00 68 1016.9
20260509091703 71 293 2.0 10.0 0.00 0.00 0.00 68 1016.9
20260509091603 71 294 2.0 7.0 0.00 0.00 0.00 67 1016.9
20260509091503 71 305 2.0 7.0 0.00 0.00 0.00 66 1016.9
20260509091403 71 299 2.0 7.0 0.00 0.00 0.00 66 1016.9
20260509091303 72 296 2.0 7.0 0.00 0.00 0.00 67 1016.9
20260509091203 72 295 2.0 7.0 0.00 0.00 0.00 67 1016.9
20260509091103 72 296 2.0 7.0 0.00 0.00 0.00 68 1016.9
20260509091003 72 296 2.0 7.0 0.00 0.00 0.00 68 1016.8
20260509090903 72 296 2.0 8.0 0.00 0.00 0.00 67 1016.8
20260509090803 72 295 2.0 8.0 0.00 0.00 0.00 67 1016.9
20260509090703 72 292 2.0 8.0 0.00 0.00 0.00 66 1016.8
20260509090603 72 295 2.0 8.0 0.00 0.00 0.00 66 1016.9
20260509090503 72 292 2.0 8.0 0.00 0.00 0.00 66 1016.9
20260509090403 72 295 2.0 8.0 0.00 0.00 0.00 66 1016.9
20260509090303 72 304 2.0 8.0 0.00 0.00 0.00 66 1016.8
20260509090203 72 301 2.0 8.0 0.00 0.00 0.00 66 1016.8
20260509090003 72 301 2.0 8.0 0.00 0.00 0.00 66 1016.9
20260509085903 72 329 1.0 7.0 0.00 0.00 0.00 66 1016.9
20260509085803 72 311 2.0 7.0 0.00 0.00 0.00 66 1016.9
20260509085703 72 307 2.0 7.0 0.00 0.00 0.00 66 1017.0
20260509085603 72 301 2.0 6.0 0.00 0.00 0.00 65 1016.9
20260509085503 72 306 2.0 6.0 0.00 0.00 0.00 65 1016.9
20260509085403 72 303 2.0 7.0 0.00 0.00 0.00 65 1016.9
20260509085306 72 302 2.0 7.0 0.00 0.00 0.00 64 1016.9
20260509085203 72 302 2.0 7.0 0.00 0.00 0.00 63 1017.0
20260509085103 72 302 3.0 7.0 0.00 0.00 0.00 63 1017.0
20260509085003 72 302 3.0 7.0 0.00 0.00 0.00 63 1016.9
20260509084903 72 300 3.0 7.0 0.00 0.00 0.00 63 1017.0
20260509084803 72 299 3.0 7.0 0.00 0.00 0.00 63 1017.0
20260509084703 72 299 3.0 7.0 0.00 0.00 0.00 63 1017.0
20260509084603 72 298 3.0 7.0 0.00 0.00 0.00 63 1016.9
20260509084503 72 297 3.0 7.0 0.00 0.00 0.00 64 1016.9
20260509084403 72 297 3.0 7.0 0.00 0.00 0.00 64 1016.9
20260509084303 72 296 3.0 7.0 0.00 0.00 0.00 64 1016.9
20260509084203 72 295 4.0 9.0 0.00 0.00 0.00 64 1016.9
20260509084103 72 294 4.0 10.0 0.00 0.00 0.00 64 1017.0
20260509084003 72 296 4.0 10.0 0.00 0.00 0.00 64 1016.9
20260509083903 72 296 4.0 10.0 0.00 0.00 0.00 64 1016.9
20260509083804 72 296 4.0 10.0 0.00 0.00 0.00 64 1016.9
20260509083704 72 297 4.0 10.0 0.00 0.00 0.00 64 1016.9
20260509083604 72 299 4.0 10.0 0.00 0.00 0.00 64 1016.9
20260509083504 72 299 4.0 10.0 0.00 0.00 0.00 64 1016.8
20260509083404 72 299 4.0 10.0 0.00 0.00 0.00 64 1016.8
20260509083304 72 300 3.0 10.0 0.00 0.00 0.00 64 1016.9
20260509083204 72 301 3.0 10.0 0.00 0.00 0.00 63 1016.8
20260509083104 72 303 2.0 8.0 0.00 0.00 0.00 64 1016.9
20260509083004 72 303 2.0 8.0 0.00 0.00 0.00 64 1017.0
20260509082904 72 301 2.0 8.0 0.00 0.00 0.00 64 1016.9
20260509082804 72 300 2.0 8.0 0.00 0.00 0.00 65 1017.0
20260509082704 72 297 2.0 8.0 0.00 0.00 0.00 65 1016.9
20260509082604 72 296 2.0 8.0 0.00 0.00 0.00 65 1017.0
20260509082504 72 300 1.0 6.0 0.00 0.00 0.00 66 1017.0
20260509082404 72 299 2.0 6.0 0.00 0.00 0.00 66 1016.9
20260509082306 72 299 2.0 6.0 0.00 0.00 0.00 66 1016.9
20260509082204 72 297 3.0 8.0 0.00 0.00 0.00 66 1017.1
20260509082104 72 297 3.0 8.0 0.00 0.00 0.00 66 1017.0
20260509082004 72 298 3.0 8.0 0.00 0.00 0.00 66 1017.1
20260509081904 71 300 3.0 8.0 0.00 0.00 0.00 66 1017.1
20260509081804 71 299 3.0 8.0 0.00 0.00 0.00 66 1017.1
20260509081704 71 300 3.0 8.0 0.00 0.00 0.00 66 1017.0
20260509081604 71 300 3.0 8.0 0.00 0.00 0.00 66 1017.1
20260509081504 71 297 3.0 8.0 0.00 0.00 0.00 66 1017.1
20260509081404 71 296 3.0 8.0 0.00 0.00 0.00 66 1017.1
20260509081304 71 295 3.0 8.0 0.00 0.00 0.00 66 1017.1
20260509081204 71 297 3.0 7.0 0.00 0.00 0.00 66 1017.1
20260509081104 71 297 3.0 10.0 0.00 0.00 0.00 66 1017.1
20260509081004 71 295 3.0 10.0 0.00 0.00 0.00 66 1017.1
20260509080904 71 294 3.0 10.0 0.00 0.00 0.00 66 1017.0
20260509080804 71 297 3.0 14.0 0.00 0.00 0.00 66 1017.0
20260509080704 71 297 3.0 14.0 0.00 0.00 0.00 66 1017.0
20260509080604 71 298 3.0 14.0 0.00 0.00 0.00 66 1017.1
20260509080504 71 298 3.0 14.0 0.00 0.00 0.00 66 1017.1
20260509080404 71 300 2.0 14.0 0.00 0.00 0.00 66 1017.1
20260509080304 71 303 2.0 14.0 0.00 0.00 0.00 66 1017.0
20260509080204 71 305 1.0 14.0 0.00 0.00 0.00 66 1017.0
20260509080104 71 315 1.0 14.0 0.00 0.00 0.00 66 1017.1
20260509080004 71 306 2.0 14.0 0.00 0.00 0.00 66 1016.9
20260509075904 71 299 2.0 14.0 0.00 0.00 0.00 66 1017.0
20260509075804 71 295 2.0 14.0 0.00 0.00 0.00 66 1017.1
20260509075704 71 295 2.0 14.0 0.00 0.00 0.00 66 1017.0
20260509075604 71 299 2.0 14.0 0.00 0.00 0.00 66 1017.0
20260509075504 71 299 3.0 14.0 0.00 0.00 0.00 65 1017.0
20260509075404 72 298 3.0 14.0 0.00 0.00 0.00 65 1017.0
20260509075306 72 298 3.0 14.0 0.00 0.00 0.00 65 1017.0
20260509075204 72 297 3.0 14.0 0.00 0.00 0.00 65 1017.0
20260509075104 72 296 3.0 14.0 0.00 0.00 0.00 65 1016.9
20260509075004 72 299 4.0 14.0 0.00 0.00 0.00 65 1016.9
20260509074904 72 301 3.0 14.0 0.00 0.00 0.00 65 1016.9
20260509074804 72 299 4.0 14.0 0.00 0.00 0.00 65 1016.9
20260509074704 72 298 4.0 14.0 0.00 0.00 0.00 65 1016.9
20260509074604 72 297 4.0 14.0 0.00 0.00 0.00 65 1016.9
20260509074504 72 295 4.0 14.0 0.00 0.00 0.00 65 1016.9
20260509074404 72 296 4.0 14.0 0.00 0.00 0.00 65 1016.9
20260509074304 72 296 4.0 14.0 0.00 0.00 0.00 64 1016.8
20260509074203 72 296 4.0 14.0 0.00 0.00 0.00 64 1016.8
20260509074104 72 295 4.0 14.0 0.00 0.00 0.00 65 1016.8
20260509074004 72 292 3.0 8.0 0.00 0.00 0.00 65 1016.8
20260509073903 72 292 3.0 8.0 0.00 0.00 0.00 65 1016.8
20260509073803 72 293 2.0 8.0 0.00 0.00 0.00 66 1016.8
20260509073704 72 294 2.0 8.0 0.00 0.00 0.00 66 1016.8
20260509073603 72 292 2.0 7.0 0.00 0.00 0.00 67 1016.7
20260509073503 72 297 1.0 7.0 0.00 0.00 0.00 67 1016.8
20260509073403 72 294 2.0 9.0 0.00 0.00 0.00 67 1016.9
20260509073303 71 293 2.0 9.0 0.00 0.00 0.00 68 1016.9
20260509073203 71 293 2.0 9.0 0.00 0.00 0.00 68 1016.9
20260509073103 71 295 2.0 9.0 0.00 0.00 0.00 67 1016.8
20260509073004 71 293 2.0 9.0 0.00 0.00 0.00 67 1016.9
20260509072903 71 291 2.0 9.0 0.00 0.00 0.00 67 1016.8
20260509072803 71 289 2.0 9.0 0.00 0.00 0.00 67 1016.8
20260509072703 71 291 3.0 9.0 0.00 0.00 0.00 67 1016.8
20260509072603 71 291 3.0 9.0 0.00 0.00 0.00 67 1016.7
20260509072503 71 292 3.0 9.0 0.00 0.00 0.00 67 1016.7
20260509072403 71 293 3.0 10.0 0.00 0.00 0.00 67 1016.8
20260509072306 71 293 3.0 10.0 0.00 0.00 0.00 67 1016.7
20260509072203 71 292 3.0 10.0 0.00 0.00 0.00 67 1016.7
20260509072103 71 292 3.0 10.0 0.00 0.00 0.00 67 1016.6
20260509072003 71 293 4.0 10.0 0.00 0.00 0.00 67 1016.7
20260509071903 71 294 3.0 10.0 0.00 0.00 0.00 67 1016.7
20260509071803 71 295 3.0 10.0 0.00 0.00 0.00 67 1016.7
20260509071703 71 294 3.0 10.0 0.00 0.00 0.00 67 1016.7
20260509071603 71 294 3.0 10.0 0.00 0.00 0.00 67 1016.7
20260509071504 71 294 4.0 10.0 0.00 0.00 0.00 67 1016.6
20260509071403 71 293 3.0 8.0 0.00 0.00 0.00 67 1016.6
20260509071303 71 293 4.0 8.0 0.00 0.00 0.00 67 1016.7
20260509071203 71 293 4.0 8.0 0.00 0.00 0.00 67 1016.7
20260509071103 71 295 3.0 8.0 0.00 0.00 0.00 67 1016.6
20260509071003 71 295 3.0 8.0 0.00 0.00 0.00 67 1016.6
20260509070903 71 295 4.0 8.0 0.00 0.00 0.00 67 1016.7
20260509070803 71 295 4.0 8.0 0.00 0.00 0.00 67 1016.7
20260509070703 71 297 4.0 9.0 0.00 0.00 0.00 67 1016.7
20260509070603 71 296 4.0 9.0 0.00 0.00 0.00 66 1016.8
20260509070503 71 296 3.0 9.0 0.00 0.00 0.00 66 1016.8
20260509070403 71 296 3.0 9.0 0.00 0.00 0.00 66 1016.8
20260509070303 71 296 3.0 9.0 0.00 0.00 0.00 66 1016.8
20260509070203 72 296 3.0 9.0 0.00 0.00 0.00 65 1016.8
20260509070003 72 296 3.0 11.0 0.00 0.00 0.00 65 1016.8
20260509065903 72 296 3.0 11.0 0.00 0.00 0.00 65 1016.8
20260509065803 72 296 3.0 11.0 0.00 0.00 0.00 65 1016.8
20260509065703 72 293 4.0 11.0 0.00 0.00 0.00 65 1016.7
20260509065603 73 293 4.0 11.0 0.00 0.00 0.00 65 1016.7
20260509065503 73 292 4.0 11.0 0.00 0.00 0.00 65 1016.7
20260509065403 73 293 4.0 11.0 0.00 0.00 0.00 66 1016.7
20260509065306 73 293 4.0 11.0 0.00 0.00 0.00 66 1016.7
20260509065203 73 293 4.0 11.0 0.00 0.00 0.00 66 1016.7
20260509065103 73 293 4.0 11.0 0.00 0.00 0.00 66 1016.7
20260509065003 72 290 4.0 9.0 0.00 0.00 0.00 67 1016.7
20260509064903 72 289 3.0 9.0 0.00 0.00 0.00 67 1016.8
20260509064803 72 289 3.0 9.0 0.00 0.00 0.00 68 1016.9
20260509064703 72 292 3.0 9.0 0.00 0.00 0.00 68 1016.9
20260509064603 72 292 3.0 9.0 0.00 0.00 0.00 69 1016.8
20260509064503 71 293 3.0 9.0 0.00 0.00 0.00 69 1016.8
20260509064403 71 292 3.0 9.0 0.00 0.00 0.00 70 1016.8
20260509064303 71 292 4.0 9.0 0.00 0.00 0.00 70 1016.8
20260509064203 71 292 4.0 10.0 0.00 0.00 0.00 70 1016.8
20260509064103 71 292 4.0 10.0 0.00 0.00 0.00 71 1016.8
20260509064003 70 292 4.0 10.0 0.00 0.00 0.00 71 1016.8
20260509063903 70 292 4.0 10.0 0.00 0.00 0.00 71 1016.8
20260509063803 70 292 5.0 10.0 0.00 0.00 0.00 71 1016.8
20260509063703 70 292 5.0 10.0 0.00 0.00 0.00 71 1016.8
20260509063603 69 292 4.0 10.0 0.00 0.00 0.00 71 1016.8
20260509063503 69 294 5.0 10.0 0.00 0.00 0.00 71 1016.8
20260509063403 69 294 5.0 10.0 0.00 0.00 0.00 71 1016.8
20260509063303 69 294 5.0 10.0 0.00 0.00 0.00 71 1017.0
20260509063203 69 294 4.0 9.0 0.00 0.00 0.00 71 1016.9
20260509063103 69 295 4.0 9.0 0.00 0.00 0.00 71 1017.0
20260509063003 69 295 4.0 9.0 0.00 0.00 0.00 71 1016.9
20260509062903 69 295 3.0 9.0 0.00 0.00 0.00 71 1017.0
20260509062803 69 296 3.0 9.0 0.00 0.00 0.00 71 1016.9
20260509062703 69 295 3.0 9.0 0.00 0.00 0.00 71 1016.9
20260509062603 69 296 3.0 9.0 0.00 0.00 0.00 71 1017.0
20260509062503 69 295 2.0 9.0 0.00 0.00 0.00 71 1016.8
20260509062403 69 296 2.0 8.0 0.00 0.00 0.00 71 1016.8
20260509062306 69 301 2.0 8.0 0.00 0.00 0.00 71 1016.9
20260509062203 69 302 2.0 9.0 0.00 0.00 0.00 71 1016.9
20260509062103 69 303 2.0 9.0 0.00 0.00 0.00 71 1016.8
20260509062003 69 302 2.0 9.0 0.00 0.00 0.00 71 1016.8
20260509061903 69 302 3.0 9.0 0.00 0.00 0.00 71 1016.8
20260509061803 69 302 3.0 9.0 0.00 0.00 0.00 72 1016.8
20260509061703 69 300 4.0 9.0 0.00 0.00 0.00 71 1016.8
20260509061603 69 298 4.0 9.0 0.00 0.00 0.00 72 1016.8
20260509061504 69 298 4.0 11.0 0.00 0.00 0.00 72 1016.8
20260509061403 69 298 5.0 11.0 0.00 0.00 0.00 72 1016.8
20260509061303 69 296 5.0 11.0 0.00 0.00 0.00 72 1016.8
20260509061203 69 296 4.0 11.0 0.00 0.00 0.00 72 1016.9
20260509061103 69 294 4.0 11.0 0.00 0.00 0.00 73 1017.0
20260509061003 69 294 4.0 11.0 0.00 0.00 0.00 73 1016.9
20260509060903 69 292 4.0 11.0 0.00 0.00 0.00 73 1016.9
20260509060803 69 292 4.0 11.0 0.00 0.00 0.00 73 1016.8
20260509060703 69 292 3.0 11.0 0.00 0.00 0.00 74 1016.8
20260509060603 69 293 3.0 11.0 0.00 0.00 0.00 74 1016.7
20260509060503 69 292 3.0 9.0 0.00 0.00 0.00 74 1016.7
20260509060403 69 292 2.0 9.0 0.00 0.00 0.00 75 1016.6
20260509060303 69 291 2.0 8.0 0.00 0.00 0.00 75 1016.6
20260509060203 69 290 2.0 8.0 0.00 0.00 0.00 76 1016.7
20260509060104 68 292 2.0 8.0 0.00 0.00 0.00 76 1016.7
20260509060004 68 292 2.0 6.0 0.00 0.00 0.00 76 1016.7
20260509055904 68 293 2.0 6.0 0.00 0.00 0.00 76 1016.8
20260509055804 68 292 2.0 6.0 0.00 0.00 0.00 76 1016.7
20260509055704 67 291 2.0 6.0 0.00 0.00 0.00 76 1016.5
20260509055604 67 291 2.0 6.0 0.00 0.00 0.00 76 1016.5
20260509055504 67 292 2.0 6.0 0.00 0.00 0.00 77 1016.5
20260509055404 67 292 2.0 6.0 0.00 0.00 0.00 77 1016.6
20260509055306 67 292 2.0 6.0 0.00 0.00 0.00 77 1016.6
20260509055204 67 292 1.0 6.0 0.00 0.00 0.00 77 1016.7
20260509055104 67 292 1.0 6.0 0.00 0.00 0.00 77 1016.6
20260509055004 67 294 1.0 6.0 0.00 0.00 0.00 77 1016.6
20260509054904 67 293 1.0 6.0 0.00 0.00 0.00 77 1016.7
20260509054804 67 293 1.0 5.0 0.00 0.00 0.00 77 1016.6
20260509054704 67 294 1.0 5.0 0.00 0.00 0.00 77 1016.6
20260509054604 67 295 1.0 5.0 0.00 0.00 0.00 77 1016.7
20260509054504 67 290 1.0 5.0 0.00 0.00 0.00 77 1016.7
20260509054404 67 290 1.0 5.0 0.00 0.00 0.00 77 1016.6
20260509054304 67 292 1.0 5.0 0.00 0.00 0.00 77 1016.5
20260509054204 67 292 1.0 5.0 0.00 0.00 0.00 77 1016.6
20260509054104 67 295 1.0 7.0 0.00 0.00 0.00 77 1016.5
20260509054004 67 294 1.0 7.0 0.00 0.00 0.00 77 1016.6
20260509053904 67 294 1.0 7.0 0.00 0.00 0.00 77 1016.6
20260509053804 67 292 1.0 7.0 0.00 0.00 0.00 77 1016.6
20260509053704 67 292 1.0 7.0 0.00 0.00 0.00 77 1016.5
20260509053604 67 291 1.0 7.0 0.00 0.00 0.00 77 1016.6
20260509053504 67 292 2.0 7.0 0.00 0.00 0.00 77 1016.6
20260509053404 67 292 2.0 7.0 0.00 0.00 0.00 77 1016.5
20260509053304 66 296 2.0 10.0 0.00 0.00 0.00 77 1016.5
20260509053204 66 295 2.0 10.0 0.00 0.00 0.00 77 1016.5
20260509053104 67 295 2.0 10.0 0.00 0.00 0.00 77 1016.5
20260509053004 67 296 2.0 10.0 0.00 0.00 0.00 77 1016.6
20260509052904 67 296 2.0 10.0 0.00 0.00 0.00 77 1016.5
20260509052804 67 297 2.0 10.0 0.00 0.00 0.00 77 1016.4
20260509052704 67 297 2.0 10.0 0.00 0.00 0.00 77 1016.5
20260509052604 67 297 2.0 10.0 0.00 0.00 0.00 77 1016.5
20260509052504 67 298 2.0 10.0 0.00 0.00 0.00 77 1016.5
20260509052404 67 298 2.0 10.0 0.00 0.00 0.00 77 1016.4
20260509052307 67 295 2.0 6.0 0.00 0.00 0.00 77 1016.4
20260509052204 67 293 1.0 5.0 0.00 0.00 0.00 77 1016.3
20260509052104 67 293 2.0 5.0 0.00 0.00 0.00 77 1016.4
20260509052003 67 289 2.0 9.0 0.00 0.00 0.00 77 1016.4
20260509051903 67 287 2.0 9.0 0.00 0.00 0.00 78 1016.3
20260509051803 67 287 2.0 9.0 0.00 0.00 0.00 78 1016.3
20260509051703 67 288 1.0 9.0 0.00 0.00 0.00 78 1016.3
20260509051603 67 289 2.0 9.0 0.00 0.00 0.00 78 1016.3
20260509051504 67 289 2.0 9.0 0.00 0.00 0.00 78 1016.3
20260509051403 67 291 2.0 9.0 0.00 0.00 0.00 78 1016.3
20260509051303 67 291 2.0 9.0 0.00 0.00 0.00 78 1016.2
20260509051203 67 292 2.0 9.0 0.00 0.00 0.00 78 1016.2
20260509051103 67 292 2.0 9.0 0.00 0.00 0.00 78 1016.2
20260509051003 67 296 2.0 6.0 0.00 0.00 0.00 78 1016.2
20260509050903 67 297 1.0 6.0 0.00 0.00 0.00 78 1016.2
20260509050803 67 297 1.0 6.0 0.00 0.00 0.00 78 1016.2
20260509050703 67 296 1.0 6.0 0.00 0.00 0.00 78 1016.2
20260509050603 67 295 1.0 6.0 0.00 0.00 0.00 78 1016.2
20260509050503 67 298 1.0 5.0 0.00 0.00 0.00 78 1016.2
20260509050403 67 297 1.0 5.0 0.00 0.00 0.00 78 1016.2
20260509050303 67 294 1.0 5.0 0.00 0.00 0.00 78 1016.2
20260509050203 67 291 1.0 5.0 0.00 0.00 0.00 78 1016.2
20260509050003 67 290 1.0 3.0 0.00 0.00 0.00 78 1016.2
20260509045903 67 292 1.0 3.0 0.00 0.00 0.00 78 1016.1
20260509045803 66 292 1.0 3.0 0.00 0.00 0.00 78 1016.2
20260509045703 66 290 1.0 3.0 0.00 0.00 0.00 78 1016.1
20260509045603 66 290 1.0 3.0 0.00 0.00 0.00 78 1016.2
20260509045536 66 289 0.0 3.0 0.00 0.00 0.00 78 1016.2
20260509045403 66 293 1.0 4.0 0.00 0.00 0.00 78 1016.1
20260509045308 66 295 1.0 4.0 0.00 0.00 0.00 78 1016.0
20260509045306 66 295 1.0 4.0 0.00 0.00 0.00 78 1016.1
20260509045103 66 304 0.0 4.0 0.00 0.00 0.00 79 1016.2
20260509045003 66 303 0.0 4.0 0.00 0.00 0.00 79 1016.2
20260509044903 66 301 0.0 4.0 0.00 0.00 0.00 79 1016.0
20260509044803 66 300 1.0 4.0 0.00 0.00 0.00 79 1016.0
20260509044703 66 300 0.0 4.0 0.00 0.00 0.00 79 1015.9
20260509044603 66 302 1.0 5.0 0.00 0.00 0.00 79 1016.0
20260509044503 66 302 1.0 6.0 0.00 0.00 0.00 79 1015.9
20260509044403 66 302 1.0 6.0 0.00 0.00 0.00 79 1016.0
20260509044303 66 303 1.0 6.0 0.00 0.00 0.00 79 1015.9
20260509044203 66 303 1.0 6.0 0.00 0.00 0.00 79 1015.9
20260509044103 66 300 1.0 6.0 0.00 0.00 0.00 79 1015.9
20260509044003 66 300 1.0 6.0 0.00 0.00 0.00 79 1015.8
20260509043903 66 300 2.0 6.0 0.00 0.00 0.00 79 1015.9
20260509043803 66 299 2.0 6.0 0.00 0.00 0.00 79 1015.8
20260509043703 66 299 2.0 6.0 0.00 0.00 0.00 79 1015.9
20260509043603 66 299 1.0 6.0 0.00 0.00 0.00 79 1015.8
20260509043503 66 297 1.0 6.0 0.00 0.00 0.00 79 1015.9
20260509043403 66 295 1.0 6.0 0.00 0.00 0.00 79 1015.9
20260509043303 66 293 1.0 6.0 0.00 0.00 0.00 79 1015.8
20260509043203 66 292 1.0 6.0 0.00 0.00 0.00 79 1015.8
20260509043103 66 292 1.0 6.0 0.00 0.00 0.00 79 1015.9
20260509043003 66 292 1.0 6.0 0.00 0.00 0.00 79 1015.9
20260509042903 65 293 1.0 6.0 0.00 0.00 0.00 79 1015.8
20260509042803 65 293 1.0 6.0 0.00 0.00 0.00 79 1015.9
20260509042703 65 293 1.0 6.0 0.00 0.00 0.00 79 1015.9
20260509042603 65 293 1.0 6.0 0.00 0.00 0.00 79 1015.8
20260509042503 65 293 1.0 6.0 0.00 0.00 0.00 79 1015.8
20260509042403 65 294 1.0 5.0 0.00 0.00 0.00 79 1015.7
20260509042306 65 293 1.0 6.0 0.00 0.00 0.00 79 1015.7
20260509042203 65 292 1.0 6.0 0.00 0.00 0.00 79 1015.7
20260509042103 65 291 1.0 6.0 0.00 0.00 0.00 79 1015.9
20260509042003 65 292 1.0 6.0 0.00 0.00 0.00 79 1015.8
20260509041903 65 292 2.0 6.0 0.00 0.00 0.00 79 1015.8
20260509041803 65 293 2.0 6.0 0.00 0.00 0.00 79 1015.8
20260509041703 65 294 2.0 6.0 0.00 0.00 0.00 79 1015.9
20260509041603 65 294 2.0 6.0 0.00 0.00 0.00 79 1015.9
20260509041503 65 294 2.0 6.0 0.00 0.00 0.00 79 1015.8
20260509041403 65 293 2.0 6.0 0.00 0.00 0.00 79 1015.8
20260509041303 65 295 2.0 6.0 0.00 0.00 0.00 79 1016.0
20260509041203 65 294 3.0 7.0 0.00 0.00 0.00 79 1016.0
20260509041103 65 296 3.0 7.0 0.00 0.00 0.00 79 1015.8
20260509041003 65 297 3.0 7.0 0.00 0.00 0.00 79 1015.9
20260509040903 65 296 3.0 7.0 0.00 0.00 0.00 79 1015.8
20260509040804 65 295 3.0 7.0 0.00 0.00 0.00 79 1015.9
20260509040703 65 294 3.0 7.0 0.00 0.00 0.00 79 1015.8
20260509040603 65 295 3.0 7.0 0.00 0.00 0.00 79 1015.9
20260509040503 65 296 3.0 7.0 0.00 0.00 0.00 79 1015.9
20260509040403 65 295 3.0 7.0 0.00 0.00 0.00 79 1015.8
20260509040303 65 294 3.0 7.0 0.00 0.00 0.00 79 1015.9
20260509040203 65 295 3.0 6.0 0.00 0.00 0.00 79 1015.7
20260509040003 65 293 2.0 6.0 0.00 0.00 0.00 79 1015.8
20260509035903 65 293 2.0 6.0 0.00 0.00 0.00 79 1015.8
20260509035803 65 292 2.0 6.0 0.00 0.00 0.00 79 1015.8
20260509035703 65 292 2.0 6.0 0.00 0.00 0.00 79 1015.8
20260509035603 65 291 2.0 6.0 0.00 0.00 0.00 79 1015.7
20260509035503 65 290 2.0 6.0 0.00 0.00 0.00 79 1015.7
20260509035403 65 292 2.0 6.0 0.00 0.00 0.00 79 1015.8
20260509035306 65 292 2.0 6.0 0.00 0.00 0.00 79 1015.7
20260509035203 65 291 2.0 6.0 0.00 0.00 0.00 79 1015.7
20260509035103 65 291 2.0 6.0 0.00 0.00 0.00 79 1015.7
20260509035003 65 291 2.0 7.0 0.00 0.00 0.00 79 1015.9
20260509034903 66 293 2.0 7.0 0.00 0.00 0.00 79 1015.9
20260509034803 65 295 2.0 7.0 0.00 0.00 0.00 79 1015.9
20260509034703 66 294 2.0 7.0 0.00 0.00 0.00 79 1015.9
20260509034603 66 293 2.0 7.0 0.00 0.00 0.00 79 1015.9
20260509034503 66 294 2.0 7.0 0.00 0.00 0.00 79 1015.9
20260509034404 66 293 2.0 7.0 0.00 0.00 0.00 79 1015.9
20260509034304 66 292 2.0 7.0 0.00 0.00 0.00 79 1015.8
20260509034204 66 292 2.0 7.0 0.00 0.00 0.00 79 1015.9
20260509034104 66 292 2.0 7.0 0.00 0.00 0.00 79 1016.0
20260509034004 66 292 2.0 7.0 0.00 0.00 0.00 79 1016.0
20260509033904 66 290 2.0 6.0 0.00 0.00 0.00 79 1015.9
20260509033804 66 290 2.0 6.0 0.00 0.00 0.00 79 1015.9
20260509033704 66 289 1.0 6.0 0.00 0.00 0.00 79 1015.9
20260509033604 66 290 1.0 6.0 0.00 0.00 0.00 79 1015.9
20260509033504 66 290 1.0 6.0 0.00 0.00 0.00 79 1015.9
20260509033404 66 290 1.0 6.0 0.00 0.00 0.00 79 1015.9
20260509033304 66 291 1.0 6.0 0.00 0.00 0.00 79 1015.8
20260509033204 66 291 1.0 6.0 0.00 0.00 0.00 79 1015.8
20260509033104 66 291 1.0 6.0 0.00 0.00 0.00 79 1015.8
20260509033004 66 291 1.0 6.0 0.00 0.00 0.00 79 1015.8
20260509032904 66 291 1.0 6.0 0.00 0.00 0.00 79 1015.8
20260509032804 66 292 1.0 4.0 0.00 0.00 0.00 79 1015.8
20260509032704 66 292 1.0 4.0 0.00 0.00 0.00 79 1015.8
20260509032604 66 292 1.0 4.0 0.00 0.00 0.00 79 1015.8
20260509032504 66 294 1.0 4.0 0.00 0.00 0.00 79 1015.7
20260509032404 66 296 1.0 4.0 0.00 0.00 0.00 79 1015.8
20260509032306 66 296 1.0 5.0 0.00 0.00 0.00 80 1015.7
20260509032204 66 296 1.0 5.0 0.00 0.00 0.00 80 1015.7
20260509032104 66 295 1.0 5.0 0.00 0.00 0.00 80 1015.6
20260509032004 66 295 1.0 5.0 0.00 0.00 0.00 80 1015.7
20260509031904 66 296 1.0 5.0 0.00 0.00 0.00 80 1015.7
20260509031804 66 297 1.0 5.0 0.00 0.00 0.00 80 1015.6
20260509031704 66 300 1.0 5.0 0.00 0.00 0.00 80 1015.7
20260509031604 66 303 2.0 7.0 0.00 0.00 0.00 80 1015.6
20260509031504 66 303 2.0 7.0 0.00 0.00 0.00 80 1015.7
20260509031404 66 305 2.0 7.0 0.00 0.00 0.00 80 1015.6
20260509031304 66 302 2.0 8.0 0.00 0.00 0.00 80 1015.6
20260509031204 66 303 2.0 8.0 0.00 0.00 0.00 80 1015.6
20260509031104 66 306 2.0 8.0 0.00 0.00 0.00 80 1015.6
20260509031004 66 307 2.0 8.0 0.00 0.00 0.00 80 1015.6
20260509030904 66 308 2.0 8.0 0.00 0.00 0.00 80 1015.7
20260509030804 66 310 2.0 8.0 0.00 0.00 0.00 80 1015.6
20260509030704 66 308 2.0 8.0 0.00 0.00 0.00 80 1015.6
20260509030604 66 305 1.0 8.0 0.00 0.00 0.00 79 1015.6
20260509030504 66 302 2.0 8.0 0.00 0.00 0.00 80 1015.5
20260509030404 66 299 1.0 8.0 0.00 0.00 0.00 79 1015.4
20260509030304 66 307 1.0 7.0 0.00 0.00 0.00 79 1015.5
20260509030204 66 308 1.0 4.0 0.00 0.00 0.00 79 1015.5
20260509030104 66 304 1.0 4.0 0.00 0.00 0.00 79 1015.4
20260509030004 66 304 1.0 4.0 0.00 0.00 0.00 79 1015.4
20260509025904 66 298 1.0 4.0 0.00 0.00 0.00 79 1015.4
20260509025804 66 295 1.0 6.0 0.00 0.00 0.00 79 1015.4
20260509025704 66 295 1.0 7.0 0.00 0.00 0.00 79 1015.3
20260509025604 66 294 1.0 7.0 0.00 0.00 0.00 79 1015.4
20260509025504 66 292 1.0 7.0 0.00 0.00 0.00 80 1015.4
20260509025404 66 292 1.0 7.0 0.00 0.00 0.00 80 1015.3
20260509025306 66 291 2.0 7.0 0.00 0.00 0.00 79 1015.2
20260509025204 66 293 2.0 8.0 0.00 0.00 0.00 80 1015.2
20260509025104 66 294 2.0 8.0 0.00 0.00 0.00 80 1015.2
20260509025004 66 294 2.0 8.0 0.00 0.00 0.00 80 1015.2
20260509024903 66 294 2.0 8.0 0.00 0.00 0.00 79 1015.2
20260509024803 66 294 2.0 8.0 0.00 0.00 0.00 79 1015.2
20260509024703 66 294 2.0 8.0 0.00 0.00 0.00 79 1015.2
20260509024604 66 296 2.0 8.0 0.00 0.00 0.00 79 1015.2
20260509024503 66 299 2.0 8.0 0.00 0.00 0.00 79 1015.2
20260509024403 66 298 2.0 8.0 0.00 0.00 0.00 79 1015.2
20260509024303 66 295 2.0 8.0 0.00 0.00 0.00 79 1015.1
20260509024203 66 293 1.0 7.0 0.00 0.00 0.00 79 1015.2
20260509024103 66 291 1.0 7.0 0.00 0.00 0.00 79 1015.3
20260509024003 66 294 2.0 7.0 0.00 0.00 0.00 79 1015.3
20260509023903 66 295 2.0 7.0 0.00 0.00 0.00 79 1015.3
20260509023803 66 295 2.0 7.0 0.00 0.00 0.00 79 1015.3
20260509023703 66 294 2.0 7.0 0.00 0.00 0.00 79 1015.3
20260509023603 66 292 2.0 7.0 0.00 0.00 0.00 79 1015.2
20260509023503 66 292 2.0 7.0 0.00 0.00 0.00 79 1015.2
20260509023403 66 295 1.0 7.0 0.00 0.00 0.00 79 1015.2
20260509023303 66 297 1.0 6.0 0.00 0.00 0.00 79 1015.2
20260509023203 66 296 1.0 6.0 0.00 0.00 0.00 79 1015.2
20260509023103 66 294 1.0 7.0 0.00 0.00 0.00 79 1015.2
20260509023003 66 293 2.0 7.0 0.00 0.00 0.00 79 1015.3
20260509022903 66 292 2.0 7.0 0.00 0.00 0.00 79 1015.2
20260509022803 66 296 2.0 7.0 0.00 0.00 0.00 79 1015.2
20260509022703 66 298 2.0 7.0 0.00 0.00 0.00 79 1015.2
20260509022603 66 299 2.0 7.0 0.00 0.00 0.00 79 1015.2
20260509022503 66 298 2.0 7.0 0.00 0.00 0.00 79 1015.1
20260509022403 66 298 2.0 7.0 0.00 0.00 0.00 79 1015.2
20260509022306 66 299 2.0 7.0 0.00 0.00 0.00 79 1015.2
20260509022204 66 299 2.0 7.0 0.00 0.00 0.00 79 1015.2
20260509022103 66 302 2.0 7.0 0.00 0.00 0.00 79 1015.2
20260509022003 66 304 1.0 6.0 0.00 0.00 0.00 79 1015.2
20260509021903 66 310 1.0 6.0 0.00 0.00 0.00 79 1015.2
20260509021803 66 306 1.0 5.0 0.00 0.00 0.00 79 1015.2
20260509021703 66 303 1.0 4.0 0.00 0.00 0.00 79 1015.1
20260509021603 66 301 0.0 4.0 0.00 0.00 0.00 79 1015.1
20260509021503 66 308 0.0 4.0 0.00 0.00 0.00 79 1015.1
20260509021403 66 333 0.0 4.0 0.00 0.00 0.00 79 1015.1
20260509021303 66 28 0.0 4.0 0.00 0.00 0.00 79 1015.1
20260509021203 66 100 0.0 4.0 0.00 0.00 0.00 79 1015.1
20260509021103 66 103 0.0 4.0 0.00 0.00 0.00 79 1015.1
20260509021003 66 102 0.0 4.0 0.00 0.00 0.00 79 1015.2
20260509020903 66 102 0.0 4.0 0.00 0.00 0.00 79 1015.2
20260509020803 66 103 1.0 4.0 0.00 0.00 0.00 79 1015.1
20260509020703 66 96 1.0 4.0 0.00 0.00 0.00 79 1015.1
20260509020603 66 98 1.0 4.0 0.00 0.00 0.00 79 1015.1
20260509020503 66 98 1.0 4.0 0.00 0.00 0.00 79 1015.1
20260509020403 66 92 1.0 4.0 0.00 0.00 0.00 79 1015.1
20260509020303 66 78 1.0 4.0 0.00 0.00 0.00 79 1015.1
20260509020203 66 330 1.0 5.0 0.00 0.00 0.00 79 1015.1
20260509020003 66 291 2.0 10.0 0.00 0.00 0.00 79 1015.1
20260509015903 66 291 2.0 10.0 0.00 0.00 0.00 79 1015.1
20260509015803 66 291 2.0 10.0 0.00 0.00 0.00 79 1015.1
20260509015703 66 292 2.0 10.0 0.00 0.00 0.00 79 1015.1
20260509015603 66 292 2.0 10.0 0.00 0.00 0.00 79 1015.1
20260509015503 66 292 3.0 10.0 0.00 0.00 0.00 79 1015.1
20260509015403 66 291 3.0 10.0 0.00 0.00 0.00 79 1015.1
20260509015306 66 291 3.0 10.0 0.00 0.00 0.00 79 1015.1
20260509015203 66 292 3.0 10.0 0.00 0.00 0.00 79 1015.1
20260509015103 66 291 3.0 10.0 0.00 0.00 0.00 79 1015.1
20260509015003 66 293 2.0 7.0 0.00 0.00 0.00 78 1015.1
20260509014903 66 295 2.0 7.0 0.00 0.00 0.00 78 1015.1
20260509014803 66 296 2.0 7.0 0.00 0.00 0.00 78 1015.1
20260509014703 66 293 2.0 7.0 0.00 0.00 0.00 78 1015.1
20260509014603 66 293 2.0 7.0 0.00 0.00 0.00 78 1015.2
20260509014503 66 294 1.0 7.0 0.00 0.00 0.00 78 1015.2
20260509014403 66 295 2.0 7.0 0.00 0.00 0.00 78 1015.1
20260509014303 66 296 2.0 7.0 0.00 0.00 0.00 78 1015.1
20260509014203 66 295 2.0 6.0 0.00 0.00 0.00 78 1015.2
20260509014103 66 297 1.0 6.0 0.00 0.00 0.00 78 1015.1
20260509014003 66 297 1.0 6.0 0.00 0.00 0.00 78 1015.1
20260509013903 66 298 1.0 6.0 0.00 0.00 0.00 78 1015.0
20260509013803 66 298 1.0 6.0 0.00 0.00 0.00 78 1015.1
20260509013703 66 298 1.0 6.0 0.00 0.00 0.00 78 1015.1
20260509013603 66 298 1.0 6.0 0.00 0.00 0.00 78 1015.1
20260509013503 66 297 1.0 6.0 0.00 0.00 0.00 78 1015.0
20260509013403 66 301 1.0 6.0 0.00 0.00 0.00 78 1014.9
20260509013303 66 296 0.0 4.0 0.00 0.00 0.00 78 1014.9
20260509013203 66 298 0.0 4.0 0.00 0.00 0.00 78 1014.9
20260509013103 66 299 1.0 4.0 0.00 0.00 0.00 78 1014.9
20260509013003 66 300 1.0 5.0 0.00 0.00 0.00 78 1014.9
20260509012903 66 299 1.0 6.0 0.00 0.00 0.00 78 1014.9
20260509012803 66 300 1.0 6.0 0.00 0.00 0.00 78 1014.8
20260509012703 66 300 1.0 6.0 0.00 0.00 0.00 78 1014.8
20260509012603 66 300 1.0 6.0 0.00 0.00 0.00 78 1014.9
20260509012503 66 298 1.0 6.0 0.00 0.00 0.00 78 1014.9
20260509012403 66 296 1.0 6.0 0.00 0.00 0.00 78 1014.9
20260509012306 66 296 1.0 6.0 0.00 0.00 0.00 78 1014.9
20260509012203 66 295 1.0 6.0 0.00 0.00 0.00 78 1014.8
20260509012103 66 293 1.0 6.0 0.00 0.00 0.00 78 1014.9
20260509012003 66 289 0.0 6.0 0.00 0.00 0.00 78 1015.0
20260509011903 66 288 0.0 5.0 0.00 0.00 0.00 78 1014.8
20260509011803 66 288 0.0 5.0 0.00 0.00 0.00 78 1014.9
20260509011703 66 301 1.0 5.0 0.00 0.00 0.00 78 1014.9
20260509011603 66 299 1.0 7.0 0.00 0.00 0.00 78 1015.0
20260509011503 66 303 1.0 7.0 0.00 0.00 0.00 78 1014.9
20260509011403 66 305 1.0 7.0 0.00 0.00 0.00 78 1014.8
20260509011303 66 304 0.0 7.0 0.00 0.00 0.00 78 1014.8
20260509011203 66 304 0.0 7.0 0.00 0.00 0.00 78 1014.9
20260509011103 66 304 0.0 7.0 0.00 0.00 0.00 78 1014.8
20260509011003 66 305 1.0 7.0 0.00 0.00 0.00 78 1014.8
20260509010903 66 306 1.0 7.0 0.00 0.00 0.00 78 1014.8
20260509010803 66 307 1.0 7.0 0.00 0.00 0.00 78 1014.8
20260509010703 66 298 0.0 7.0 0.00 0.00 0.00 78 1014.8
20260509010603 66 304 0.0 4.0 0.00 0.00 0.00 78 1014.9
20260509010503 66 306 0.0 4.0 0.00 0.00 0.00 78 1014.8
20260509010403 66 333 0.0 1.0 0.00 0.00 0.00 78 1014.8
20260509010303 66 139 0.0 3.0 0.00 0.00 0.00 78 1014.8
20260509010203 66 324 0.0 5.0 0.00 0.00 0.00 78 1014.8
20260509010003 66 303 0.0 5.0 0.00 0.00 0.00 78 1014.8
20260509005904 66 303 0.0 5.0 0.00 0.00 0.00 78 1014.8
20260509005804 66 300 1.0 5.0 0.00 0.00 0.00 78 1014.9
20260509005704 66 301 1.0 5.0 0.00 0.00 0.00 78 1014.8
20260509005604 66 302 1.0 5.0 0.00 0.00 0.00 78 1014.7
20260509005504 66 302 1.0 5.0 0.00 0.00 0.00 78 1014.8
20260509005404 66 299 1.0 5.0 0.00 0.00 0.00 78 1014.9
20260509005306 66 299 1.0 5.0 0.00 0.00 0.00 77 1014.9
20260509005204 66 295 1.0 4.0 0.00 0.00 0.00 77 1014.9
20260509005104 66 293 1.0 4.0 0.00 0.00 0.00 77 1014.9
20260509005004 66 295 0.0 4.0 0.00 0.00 0.00 77 1014.9
20260509004904 66 295 0.0 4.0 0.00 0.00 0.00 77 1015.0
20260509004804 66 296 0.0 4.0 0.00 0.00 0.00 77 1014.9
20260509004704 66 295 0.0 4.0 0.00 0.00 0.00 77 1014.9
20260509004604 66 294 1.0 6.0 0.00 0.00 0.00 77 1014.9
20260509004504 66 293 1.0 6.0 0.00 0.00 0.00 77 1015.0
20260509004404 66 295 1.0 8.0 0.00 0.00 0.00 77 1015.0
20260509004304 66 294 1.0 8.0 0.00 0.00 0.00 77 1015.1
20260509004204 66 294 1.0 8.0 0.00 0.00 0.00 77 1015.1
20260509004104 66 295 1.0 8.0 0.00 0.00 0.00 77 1015.1
20260509004004 66 294 1.0 8.0 0.00 0.00 0.00 76 1015.1
20260509003904 66 295 1.0 8.0 0.00 0.00 0.00 76 1015.0
20260509003804 66 295 1.0 8.0 0.00 0.00 0.00 76 1014.9
20260509003704 66 296 1.0 8.0 0.00 0.00 0.00 76 1015.0
20260509003604 66 296 1.0 8.0 0.00 0.00 0.00 76 1015.1
20260509003504 66 296 1.0 8.0 0.00 0.00 0.00 76 1015.1
20260509003404 66 296 1.0 7.0 0.00 0.00 0.00 75 1015.1
20260509003304 66 300 0.0 5.0 0.00 0.00 0.00 75 1015.0
20260509003204 66 300 0.0 5.0 0.00 0.00 0.00 75 1015.1
20260509003104 66 301 0.0 5.0 0.00 0.00 0.00 75 1015.1
20260509003004 66 303 0.0 5.0 0.00 0.00 0.00 75 1015.0
20260509002904 66 300 0.0 5.0 0.00 0.00 0.00 75 1015.0
20260509002804 66 300 0.0 5.0 0.00 0.00 0.00 75 1015.1
20260509002704 66 292 0.0 2.0 0.00 0.00 0.00 75 1015.1
20260509002604 66 292 0.0 2.0 0.00 0.00 0.00 75 1015.1
20260509002504 66 292 0.0 2.0 0.00 0.00 0.00 75 1015.1
20260509002404 66 295 0.0 4.0 0.00 0.00 0.00 75 1015.2
20260509002306 66 292 0.0 4.0 0.00 0.00 0.00 75 1015.2
20260509002204 66 292 0.0 4.0 0.00 0.00 0.00 75 1015.1
20260509002104 66 286 1.0 5.0 0.00 0.00 0.00 75 1015.2
20260509002004 66 291 1.0 5.0 0.00 0.00 0.00 75 1015.2
20260509001904 66 296 1.0 5.0 0.00 0.00 0.00 75 1015.1
20260509001804 66 295 1.0 5.0 0.00 0.00 0.00 75 1015.1
20260509001704 66 295 1.0 6.0 0.00 0.00 0.00 75 1015.1
20260509001604 66 298 2.0 6.0 0.00 0.00 0.00 75 1015.1
20260509001504 66 299 2.0 6.0 0.00 0.00 0.00 75 1015.0
20260509001404 66 297 2.0 6.0 0.00 0.00 0.00 75 1015.1
20260509001304 66 300 2.0 6.0 0.00 0.00 0.00 75 1015.1
20260509001203 66 300 2.0 6.0 0.00 0.00 0.00 75 1015.0
20260509001103 66 300 2.0 6.0 0.00 0.00 0.00 75 1015.0
20260509001004 66 300 2.0 6.0 0.00 0.00 0.00 76 1014.9
20260509000904 66 300 2.0 6.0 0.00 0.00 0.00 76 1015.0
20260509000803 66 301 2.0 6.0 0.00 0.00 0.00 76 1014.9
20260509000704 66 304 2.0 6.0 0.00 0.00 0.00 76 1014.9
20260509000603 66 304 2.0 6.0 0.00 0.00 0.00 76 1014.9
20260509000503 66 299 2.0 8.0 0.00 0.00 0.00 76 1015.0
20260509000403 66 299 2.0 9.0 0.00 0.00 0.00 76 1014.9
20260509000304 66 295 3.0 9.0 0.00 0.00 0.00 76 1014.9
20260509000204 66 295 3.0 9.0 0.00 0.00 0.00 76 1015.0
20260509000103 66 294 2.0 9.0 0.00 0.00 0.00 76 1014.8
20260509000004 66 294 2.0 9.0 0.00 0.00 0.00 76 1014.8
20260508235903 66 294 2.0 9.0 0.00 0.00 0.00 76 1014.8
20260508235803 66 294 2.0 9.0 0.00 0.00 0.00 76 1015.0
20260508235703 66 295 2.0 9.0 0.00 0.00 0.00 76 1015.0
20260508235603 66 294 3.0 9.0 0.00 0.00 0.00 76 1014.9
20260508235503 66 296 2.0 9.0 0.00 0.00 0.00 76 1014.9
20260508235403 66 296 2.0 7.0 0.00 0.00 0.00 75 1014.8
20260508235306 66 297 2.0 7.0 0.00 0.00 0.00 75 1014.9
20260508235203 66 297 2.0 7.0 0.00 0.00 0.00 75 1014.9
20260508235103 66 298 2.0 7.0 0.00 0.00 0.00 75 1014.8
20260508235003 66 297 2.0 7.0 0.00 0.00 0.00 75 1014.9
20260508234903 66 298 2.0 7.0 0.00 0.00 0.00 75 1014.9
20260508234803 66 299 3.0 10.0 0.00 0.00 0.00 75 1015.1
20260508234703 66 299 3.0 10.0 0.00 0.00 0.00 76 1015.0
20260508234603 66 299 3.0 10.0 0.00 0.00 0.00 76 1014.9
20260508234503 66 298 3.0 10.0 0.00 0.00 0.00 76 1015.0
20260508234403 66 299 3.0 10.0 0.00 0.00 0.00 76 1015.0
20260508234303 66 300 2.0 10.0 0.00 0.00 0.00 76 1014.9
20260508234203 66 300 3.0 10.0 0.00 0.00 0.00 76 1015.0
20260508234103 66 300 3.0 10.0 0.00 0.00 0.00 76 1015.0
20260508234003 66 302 2.0 10.0 0.00 0.00 0.00 76 1015.0
20260508233903 66 301 2.0 10.0 0.00 0.00 0.00 76 1015.0
20260508233803 66 299 1.0 8.0 0.00 0.00 0.00 75 1015.0
20260508233703 66 296 1.0 7.0 0.00 0.00 0.00 75 1015.0
20260508233603 66 297 1.0 7.0 0.00 0.00 0.00 75 1014.9
20260508233503 66 297 1.0 7.0 0.00 0.00 0.00 75 1015.0
20260508233403 66 296 1.0 7.0 0.00 0.00 0.00 75 1015.0
20260508233303 66 295 1.0 7.0 0.00 0.00 0.00 75 1015.1
20260508233203 66 291 1.0 4.0 0.00 0.00 0.00 75 1015.1
20260508233103 66 290 0.0 4.0 0.00 0.00 0.00 75 1015.1
20260508233003 66 293 0.0 4.0 0.00 0.00 0.00 75 1015.1
20260508232903 66 294 1.0 3.0 0.00 0.00 0.00 75 1015.1
20260508232803 66 283 0.0 3.0 0.00 0.00 0.00 75 1015.0
20260508232703 67 289 1.0 6.0 0.00 0.00 0.00 75 1015.1
20260508232603 66 297 1.0 6.0 0.00 0.00 0.00 75 1015.1
20260508232503 66 297 1.0 6.0 0.00 0.00 0.00 75 1015.2
20260508232403 66 297 1.0 6.0 0.00 0.00 0.00 75 1015.2
20260508232306 66 297 1.0 6.0 0.00 0.00 0.00 75 1015.2
20260508232203 66 296 1.0 6.0 0.00 0.00 0.00 75 1015.1
20260508232103 67 295 1.0 6.0 0.00 0.00 0.00 74 1015.1
20260508232003 67 295 1.0 6.0 0.00 0.00 0.00 74 1015.2
20260508231903 67 295 1.0 6.0 0.00 0.00 0.00 74 1015.2
20260508231803 67 298 1.0 6.0 0.00 0.00 0.00 74 1015.2
20260508231703 67 300 1.0 6.0 0.00 0.00 0.00 74 1015.2
20260508231603 67 293 0.0 4.0 0.00 0.00 0.00 74 1015.2
20260508231503 67 294 0.0 4.0 0.00 0.00 0.00 74 1015.2
20260508231403 67 294 1.0 4.0 0.00 0.00 0.00 74 1015.2
20260508231303 67 294 1.0 4.0 0.00 0.00 0.00 74 1015.2
20260508231203 67 296 1.0 3.0 0.00 0.00 0.00 73 1015.2
20260508231003 67 297 1.0 7.0 0.00 0.00 0.00 73 1015.2
20260508230903 67 297 1.0 7.0 0.00 0.00 0.00 73 1015.1
20260508230803 67 296 1.0 7.0 0.00 0.00 0.00 73 1015.2
20260508230703 67 295 1.0 7.0 0.00 0.00 0.00 73 1015.2
20260508230603 67 295 1.0 7.0 0.00 0.00 0.00 73 1015.3
20260508230503 67 296 1.0 7.0 0.00 0.00 0.00 72 1015.2
20260508230403 67 297 1.0 7.0 0.00 0.00 0.00 72 1015.2
20260508230303 67 296 2.0 7.0 0.00 0.00 0.00 72 1015.2
20260508230203 67 296 2.0 7.0 0.00 0.00 0.00 72 1015.2
20260508230103 67 296 2.0 6.0 0.00 0.00 0.00 72 1015.2
20260508230003 67 298 2.0 9.0 0.00 0.00 0.00 72 1015.2
20260508225903 67 298 2.0 9.0 0.00 0.00 0.00 72 1015.3
20260508225803 67 300 2.0 9.0 0.00 0.00 0.00 72 1015.2
20260508225703 67 300 2.0 9.0 0.00 0.00 0.00 72 1015.2
20260508225603 67 301 2.0 9.0 0.00 0.00 0.00 72 1015.3
20260508225503 67 300 3.0 9.0 0.00 0.00 0.00 72 1015.4
20260508225403 67 301 2.0 9.0 0.00 0.00 0.00 71 1015.4
20260508225306 67 302 2.0 9.0 0.00 0.00 0.00 71 1015.3
20260508225203 67 303 2.0 9.0 0.00 0.00 0.00 71 1015.3
20260508225103 67 303 1.0 9.0 0.00 0.00 0.00 71 1015.4
20260508225003 67 301 1.0 7.0 0.00 0.00 0.00 71 1015.3
20260508224903 67 298 1.0 7.0 0.00 0.00 0.00 70 1015.2
20260508224803 67 296 1.0 7.0 0.00 0.00 0.00 70 1015.3
20260508224703 67 296 1.0 7.0 0.00 0.00 0.00 70 1015.4
20260508224603 67 297 1.0 6.0 0.00 0.00 0.00 70 1015.5
20260508224503 67 299 0.0 4.0 0.00 0.00 0.00 69 1015.3
20260508224403 67 300 1.0 4.0 0.00 0.00 0.00 69 1015.2
20260508224303 67 297 1.0 6.0 0.00 0.00 0.00 69 1015.2
20260508224203 67 296 1.0 6.0 0.00 0.00 0.00 69 1015.2
20260508224103 67 296 1.0 6.0 0.00 0.00 0.00 69 1015.2
20260508224003 67 296 1.0 6.0 0.00 0.00 0.00 69 1015.2
20260508223903 67 297 1.0 6.0 0.00 0.00 0.00 69 1015.3
20260508223803 67 296 1.0 6.0 0.00 0.00 0.00 69 1015.2
20260508223703 67 296 1.0 6.0 0.00 0.00 0.00 68 1015.2
20260508223603 67 296 1.0 6.0 0.00 0.00 0.00 68 1015.2
20260508223503 67 296 2.0 6.0 0.00 0.00 0.00 68 1015.1
20260508223403 67 295 2.0 6.0 0.00 0.00 0.00 68 1015.2
20260508223303 67 297 1.0 5.0 0.00 0.00 0.00 68 1015.2
20260508223203 67 297 1.0 5.0 0.00 0.00 0.00 68 1015.2
20260508223103 67 298 1.0 5.0 0.00 0.00 0.00 68 1015.1
20260508223003 67 298 1.0 5.0 0.00 0.00 0.00 68 1015.1
20260508222903 67 297 1.0 5.0 0.00 0.00 0.00 68 1015.1
20260508222803 67 298 1.0 5.0 0.00 0.00 0.00 68 1015.2
20260508222703 67 301 1.0 5.0 0.00 0.00 0.00 67 1015.2
20260508222603 67 299 1.0 6.0 0.00 0.00 0.00 67 1015.2
20260508222503 67 298 2.0 6.0 0.00 0.00 0.00 67 1015.1
20260508222403 67 298 2.0 6.0 0.00 0.00 0.00 67 1015.1
20260508222306 67 296 2.0 6.0 0.00 0.00 0.00 67 1015.1
20260508222203 67 296 2.0 7.0 0.00 0.00 0.00 67 1015.2
20260508222103 67 297 2.0 7.0 0.00 0.00 0.00 66 1015.1
20260508222003 67 297 2.0 7.0 0.00 0.00 0.00 66 1015.1
20260508221903 67 298 2.0 7.0 0.00 0.00 0.00 66 1015.1
20260508221803 67 297 3.0 7.0 0.00 0.00 0.00 66 1015.2
20260508221703 67 296 2.0 7.0 0.00 0.00 0.00 66 1015.3
20260508221603 67 296 2.0 7.0 0.00 0.00 0.00 66 1015.2
20260508221503 67 296 2.0 7.0 0.00 0.00 0.00 65 1015.2